Observation data for Stamford on 11/13/2019      Previous  Date       Current Mesonet Observations  Soil Data  Daily Summary Page  Observations in Plain Language
KST2 130600Z 18006KT M02/M06 A3031 RMK A01 T10181059  RH  074%=      5-min Rain = 0
KST2 130601Z 18007KT M02/M06 A3031 RMK A01 T10191060  RH  074%=      5-min Rain = 0
KST2 130602Z 18007KT M02/M06 A3031 RMK A01 T10191059  RH  074%=      5-min Rain = 0
KST2 130603Z 18007KT M02/M06 A3031 RMK A01 T10191059  RH  074%=      5-min Rain = 0
KST2 130604Z 18006KT M02/M06 A3031 RMK A01 T10191059  RH  074%=      5-min Rain = 0
KST2 130605Z 18006KT M02/M06 A303 RMK A01 T10201059  RH  074%=      5-min Rain = 0
KST2 130606Z 17006KT M02/M06 A303 RMK A01 T10201058  RH  075%=      5-min Rain = 0
KST2 130607Z 18005KT M02/M06 A3031 RMK A01 T10201058  RH  075%=      5-min Rain = 0
KST2 130608Z 17006KT M02/M06 A3031 RMK A01 T10201058  RH  075%=      5-min Rain = 0
KST2 130609Z 17006KT M02/M06 A3031 RMK A01 T10201058  RH  075%=      5-min Rain = 0
KST2 130610Z 17005KT M02/M06 A303 RMK A01 T10201058  RH  075%=      5-min Rain = 0
KST2 130611Z 18006KT M02/M06 A303 RMK A01 T10201058  RH  075%=      5-min Rain = 0
KST2 130612Z 18005KT M02/M06 A303 RMK A01 T10201058  RH  075%=      5-min Rain = 0
KST2 130613Z 18006KT M02/M06 A303 RMK A01 T10201057  RH  076%=      5-min Rain = 0
KST2 130614Z 18006KT M02/M06 A303 RMK A01 T10201058  RH  075%=      5-min Rain = 0
KST2 130615Z 18006KT M02/M06 A303 RMK A01 T10201060  RH  074%=      5-min Rain = 0
KST2 130616Z 18007KT M02/M06 A3031 RMK A01 T10201060  RH  074%=      5-min Rain = 0
KST2 130617Z 18007KT M02/M06 A3031 RMK A01 T10201060  RH  074%=      5-min Rain = 0
KST2 130618Z 18007KT M02/M06 A3031 RMK A01 T10201060  RH  074%=      5-min Rain = 0
KST2 130619Z 18007KT M02/M06 A3031 RMK A01 T10201060  RH  074%=      5-min Rain = 0
KST2 130620Z 18007KT M02/M06 A303 RMK A01 T10201060  RH  074%=      5-min Rain = 0
KST2 130621Z 18007KT M02/M06 A303 RMK A01 T10201060  RH  074%=      5-min Rain = 0
KST2 130622Z 18008KT M02/M06 A303 RMK A01 T10201060  RH  074%=      5-min Rain = 0
KST2 130623Z 18007KT M02/M06 A303 RMK A01 T10201060  RH  074%=      5-min Rain = 0
KST2 130624Z 18007KT M02/M06 A303 RMK A01 T10201060  RH  074%=      5-min Rain = 0
KST2 130625Z 18008KT M02/M06 A3031 RMK A01 T10201060  RH  074%=      5-min Rain = 0
KST2 130626Z 18008KT M02/M06 A3031 RMK A01 T10201060  RH  074%=      5-min Rain = 0
KST2 130627Z 18007KT M02/M06 A3031 RMK A01 T10211060  RH  074%=      5-min Rain = 0
KST2 130628Z 18008KT M02/M06 A3031 RMK A01 T10211061  RH  074%=      5-min Rain = 0
KST2 130629Z 18007KT M02/M06 A3031 RMK A01 T10201060  RH  074%=      5-min Rain = 0
KST2 130630Z 18008KT M02/M06 A3031 RMK A01 T10201060  RH  074%=      5-min Rain = 0
KST2 130631Z 18007KT M02/M06 A3031 RMK A01 T10201060  RH  074%=      5-min Rain = 0
KST2 130632Z 18008KT M02/M06 A3031 RMK A01 T10201061  RH  074%=      5-min Rain = 0
KST2 130633Z 18008KT M02/M06 A3031 RMK A01 T10211062  RH  073%=      5-min Rain = 0
KST2 130634Z 18008KT M02/M06 A3031 RMK A01 T10211062  RH  073%=      5-min Rain = 0
KST2 130635Z 18009KT M02/M06 A3031 RMK A01 T10211064  RH  072%=      5-min Rain = 0
KST2 130636Z 18008KT M02/M06 A3031 RMK A01 T10201064  RH  072%=      5-min Rain = 0
KST2 130637Z 18009KT M02/M06 A3031 RMK A01 T10201064  RH  072%=      5-min Rain = 0
KST2 130638Z 18009KT M02/M07 A303 RMK A01 T10201066  RH  071%=      5-min Rain = 0
KST2 130639Z 18008KT M02/M07 A303 RMK A01 T10201066  RH  071%=      5-min Rain = 0
KST2 130640Z 18008KT M02/M07 A303 RMK A01 T10201067  RH  070%=      5-min Rain = 0
KST2 130641Z 18009KT M02/M07 A303 RMK A01 T10191068  RH  070%=      5-min Rain = 0
KST2 130642Z 18008KT M02/M07 A303 RMK A01 T10191068  RH  069%=      5-min Rain = 0
KST2 130643Z 18008KT M02/M07 A303 RMK A01 T10191069  RH  068%=      5-min Rain = 0
KST2 130644Z 18008KT M02/M07 A303 RMK A01 T10181069  RH  068%=      5-min Rain = 0
KST2 130645Z 18008KT M02/M07 A303 RMK A01 T10181070  RH  068%=      5-min Rain = 0
KST2 130646Z 18009KT M02/M07 A303 RMK A01 T10171069  RH  068%=      5-min Rain = 0
KST2 130647Z 18007KT M02/M07 A303 RMK A01 T10181070  RH  067%=      5-min Rain = 0
KST2 130648Z 18008KT M02/M07 A3029 RMK A01 T10171069  RH  068%=      5-min Rain = 0
KST2 130649Z 18007KT M02/M07 A3029 RMK A01 T10171070  RH  067%=      5-min Rain = 0
KST2 130650Z 17007KT M02/M07 A3029 RMK A01 T10171069  RH  068%=      5-min Rain = 0
KST2 130651Z 17007KT M02/M07 A3029 RMK A01 T10171069  RH  068%=      5-min Rain = 0
KST2 130652Z 17007KT M02/M07 A3029 RMK A01 T10171069  RH  068%=      5-min Rain = 0
KST2 130653Z 17006KT M02/M07 A3029 RMK A01 T10181069  RH  068%=      5-min Rain = 0
KST2 130654Z 17007KT M02/M07 A3029 RMK A01 T10171068  RH  069%=      5-min Rain = 0
KST2 130655Z 16007KT M02/M07 A3028 RMK A01 T10171067  RH  069%=      5-min Rain = 0
KST2 130656Z 17007KT M02/M07 A3028 RMK A01 T10181067  RH  069%=      5-min Rain = 0
KST2 130657Z 17007KT M02/M07 A3028 RMK A01 T10181067  RH  069%=      5-min Rain = 0
KST2 130658Z 17007KT M02/M07 A3028 RMK A01 T10191067  RH  069%=      5-min Rain = 0
KST2 130659Z 17007KT M02/M07 A3028 RMK A01 T10191067  RH  070%=      5-min Rain = 0
KST2 130700Z 17006KT M02/M07 A3028 RMK A01 T10191067  RH  070%=      5-min Rain = 0
KST2 130701Z 17006KT M02/M07 A3028 RMK A01 T10191066  RH  070%=      5-min Rain = 0
KST2 130702Z 17007KT M02/M07 A3028 RMK A01 T10201067  RH  070%=      5-min Rain = 0
KST2 130703Z 17006KT M02/M07 A3028 RMK A01 T10201068  RH  070%=      5-min Rain = 0
KST2 130704Z 17007KT M02/M07 A3028 RMK A01 T10201068  RH  070%=      5-min Rain = 0
KST2 130705Z 17006KT M02/M07 A3028 RMK A01 T10201068  RH  070%=      5-min Rain = 0
KST2 130706Z 17006KT M02/M07 A3028 RMK A01 T10211068  RH  070%=      5-min Rain = 0
KST2 130707Z 17007KT M02/M07 A3028 RMK A01 T10211067  RH  071%=      5-min Rain = 0
KST2 130708Z 17006KT M02/M07 A3028 RMK A01 T10211067  RH  071%=      5-min Rain = 0
KST2 130709Z 17006KT M02/M07 A3028 RMK A01 T10211067  RH  071%=      5-min Rain = 0
KST2 130710Z 18007KT M02/M07 A3028 RMK A01 T10211066  RH  071%=      5-min Rain = 0
KST2 130711Z 18007KT M02/M07 A3028 RMK A01 T10211066  RH  071%=      5-min Rain = 0
KST2 130712Z 17007KT M02/M07 A3028 RMK A01 T10221068  RH  071%=      5-min Rain = 0
KST2 130713Z 17007KT M02/M07 A3028 RMK A01 T10221067  RH  071%=      5-min Rain = 0
KST2 130714Z 17007KT M02/M07 A3027 RMK A01 T10221067  RH  071%=      5-min Rain = 0
KST2 130715Z 18007KT M02/M07 A3028 RMK A01 T10221067  RH  071%=      5-min Rain = 0
KST2 130716Z 18007KT M02/M07 A3027 RMK A01 T10221068  RH  071%=      5-min Rain = 0
KST2 130717Z 18006KT M02/M07 A3027 RMK A01 T10221068  RH  071%=      5-min Rain = 0
KST2 130718Z 18006KT M02/M07 A3027 RMK A01 T10221068  RH  071%=      5-min Rain = 0
KST2 130719Z 18006KT M02/M07 A3027 RMK A01 T10221068  RH  071%=      5-min Rain = 0
KST2 130720Z 18006KT M02/M07 A3027 RMK A01 T10221067  RH  071%=      5-min Rain = 0
KST2 130721Z 18006KT M02/M07 A3027 RMK A01 T10221067  RH  071%=      5-min Rain = 0
KST2 130722Z 18006KT M02/M07 A3027 RMK A01 T10221067  RH  071%=      5-min Rain = 0
KST2 130723Z 18006KT M02/M07 A3027 RMK A01 T10221067  RH  071%=      5-min Rain = 0
KST2 130724Z 18005KT M02/M07 A3027 RMK A01 T10231067  RH  072%=      5-min Rain = 0
KST2 130725Z 18006KT M02/M07 A3027 RMK A01 T10231067  RH  072%=      5-min Rain = 0
KST2 130726Z 18006KT M02/M07 A3027 RMK A01 T10231066  RH  072%=      5-min Rain = 0
KST2 130727Z 18005KT M02/M07 A3027 RMK A01 T10231066  RH  072%=      5-min Rain = 0
KST2 130728Z 18005KT M02/M07 A3027 RMK A01 T10231066  RH  072%=      5-min Rain = 0
KST2 130729Z 18005KT M02/M07 A3027 RMK A01 T10231066  RH  072%=      5-min Rain = 0
KST2 130730Z 18005KT M02/M07 A3027 RMK A01 T10231068  RH  071%=      5-min Rain = 0
KST2 130731Z 18006KT M02/M07 A3027 RMK A01 T10241069  RH  071%=      5-min Rain = 0
KST2 130732Z 19006KT M02/M07 A3027 RMK A01 T10241069  RH  071%=      5-min Rain = 0
KST2 130733Z 19006KT M02/M07 A3027 RMK A01 T10241070  RH  071%=      5-min Rain = 0
KST2 130734Z 18007KT M02/M07 A3027 RMK A01 T10231070  RH  070%=      5-min Rain = 0
KST2 130735Z 18007KT M02/M07 A3027 RMK A01 T10241071  RH  070%=      5-min Rain = 0
KST2 130736Z 18007KT M02/M07 A3027 RMK A01 T10241071  RH  070%=      5-min Rain = 0
KST2 130737Z 18007KT M02/M07 A3027 RMK A01 T10241070  RH  071%=      5-min Rain = 0
KST2 130738Z 18007KT M02/M07 A3027 RMK A01 T10241069  RH  071%=      5-min Rain = 0
KST2 130739Z 18007KT M02/M07 A3027 RMK A01 T10241069  RH  071%=      5-min Rain = 0
KST2 130740Z 18007KT M02/M07 A3027 RMK A01 T10241068  RH  071%=      5-min Rain = 0
KST2 130741Z 18006KT M02/M07 A3027 RMK A01 T10241069  RH  071%=      5-min Rain = 0
KST2 130742Z 18007KT M02/M07 A3027 RMK A01 T10241069  RH  071%=      5-min Rain = 0
KST2 130743Z 18007KT M02/M07 A3027 RMK A01 T10241069  RH  071%=      5-min Rain = 0
KST2 130744Z 18007KT M02/M07 A3027 RMK A01 T10241069  RH  071%=      5-min Rain = 0
KST2 130745Z 18007KT M02/M07 A3027 RMK A01 T10241069  RH  071%=      5-min Rain = 0
KST2 130746Z 18006KT M02/M07 A3027 RMK A01 T10241070  RH  071%=      5-min Rain = 0
KST2 130747Z 18006KT M03/M07 A3027 RMK A01 T10251069  RH  071%=      5-min Rain = 0
KST2 130748Z 18006KT M03/M07 A3027 RMK A01 T10251069  RH  071%=      5-min Rain = 0
KST2 130749Z 19006KT M03/M07 A3027 RMK A01 T10251069  RH  071%=      5-min Rain = 0
KST2 130750Z 19006KT M03/M07 A3027 RMK A01 T10251070  RH  071%=      5-min Rain = 0
KST2 130751Z 18006KT M03/M07 A3027 RMK A01 T10251070  RH  071%=      5-min Rain = 0
KST2 130752Z 18006KT M03/M07 A3027 RMK A01 T10251069  RH  072%=      5-min Rain = 0
KST2 130753Z 18006KT M03/M07 A3027 RMK A01 T10251069  RH  072%=      5-min Rain = 0
KST2 130754Z 18006KT M03/M07 A3026 RMK A01 T10251070  RH  071%=      5-min Rain = 0
KST2 130755Z 19006KT M03/M07 A3026 RMK A01 T10251070  RH  071%=      5-min Rain = 0
KST2 130756Z 19006KT M03/M07 A3026 RMK A01 T10251069  RH  072%=      5-min Rain = 0
KST2 130757Z 19006KT M03/M07 A3026 RMK A01 T10251068  RH  072%=      5-min Rain = 0
KST2 130758Z 20005KT M03/M07 A3026 RMK A01 T10261068  RH  073%=      5-min Rain = 0
KST2 130759Z 20005KT M03/M07 A3026 RMK A01 T10261067  RH  073%=      5-min Rain = 0
KST2 130800Z 19005KT M03/M07 A3026 RMK A01 T10261066  RH  074%=      5-min Rain = 0
KST2 130801Z 19005KT M03/M07 A3026 RMK A01 T10261066  RH  074%=      5-min Rain = 0
KST2 130802Z 19005KT M03/M07 A3026 RMK A01 T10261065  RH  074%=      5-min Rain = 0
KST2 130803Z 19005KT M03/M07 A3025 RMK A01 T10271066  RH  075%=      5-min Rain = 0
KST2 130804Z 19005KT M03/M07 A3025 RMK A01 T10261065  RH  075%=      5-min Rain = 0
KST2 130805Z 19005KT M03/M07 A3025 RMK A01 T10271065  RH  075%=      5-min Rain = 0
KST2 130806Z 19004KT M03/M07 A3025 RMK A01 T10261065  RH  075%=      5-min Rain = 0
KST2 130807Z 19004KT M03/M07 A3025 RMK A01 T10271066  RH  074%=      5-min Rain = 0
KST2 130808Z 19005KT M03/M07 A3025 RMK A01 T10271066  RH  074%=      5-min Rain = 0
KST2 130809Z 19005KT M03/M07 A3025 RMK A01 T10271067  RH  074%=      5-min Rain = 0
KST2 130810Z 19005KT M03/M07 A3025 RMK A01 T10271066  RH  075%=      5-min Rain = 0
KST2 130811Z 19005KT M03/M07 A3025 RMK A01 T10271065  RH  075%=      5-min Rain = 0
KST2 130812Z 18005KT M03/M07 A3025 RMK A01 T10271065  RH  075%=      5-min Rain = 0
KST2 130813Z 18005KT M03/M06 A3025 RMK A01 T10271064  RH  076%=      5-min Rain = 0
KST2 130814Z 18005KT M03/M06 A3025 RMK A01 T10261063  RH  076%=      5-min Rain = 0
KST2 130815Z 19005KT M03/M06 A3025 RMK A01 T10261064  RH  076%=      5-min Rain = 0
KST2 130816Z 19005KT M03/M06 A3025 RMK A01 T10261064  RH  075%=      5-min Rain = 0
KST2 130817Z 18006KT M03/M06 A3025 RMK A01 T10261064  RH  075%=      5-min Rain = 0
KST2 130818Z 18006KT M03/M07 A3025 RMK A01 T10261065  RH  075%=      5-min Rain = 0
KST2 130819Z 18006KT M03/M07 A3025 RMK A01 T10261065  RH  075%=      5-min Rain = 0
KST2 130820Z 19006KT M03/M07 A3025 RMK A01 T10261065  RH  075%=      5-min Rain = 0
KST2 130821Z 19006KT M03/M07 A3025 RMK A01 T10261066  RH  074%=      5-min Rain = 0
KST2 130822Z 19006KT M03/M07 A3025 RMK A01 T10261067  RH  073%=      5-min Rain = 0
KST2 130823Z 19007KT M03/M07 A3025 RMK A01 T10251068  RH  073%=      5-min Rain = 0
KST2 130824Z 19006KT M03/M07 A3025 RMK A01 T10261069  RH  072%=      5-min Rain = 0
KST2 130825Z 19006KT M03/M07 A3025 RMK A01 T10251069  RH  072%=      5-min Rain = 0
KST2 130826Z 19006KT M03/M07 A3025 RMK A01 T10251070  RH  071%=      5-min Rain = 0
KST2 130827Z 19006KT M02/M07 A3025 RMK A01 T10241069  RH  071%=      5-min Rain = 0
KST2 130828Z 19006KT M02/M07 A3025 RMK A01 T10241069  RH  071%=      5-min Rain = 0
KST2 130829Z 19006KT M02/M07 A3025 RMK A01 T10241069  RH  071%=      5-min Rain = 0
KST2 130830Z 18006KT M02/M07 A3025 RMK A01 T10241070  RH  070%=      5-min Rain = 0
KST2 130831Z 19006KT M02/M07 A3025 RMK A01 T10231072  RH  069%=      5-min Rain = 0
KST2 130832Z 19006KT M02/M07 A3025 RMK A01 T10231072  RH  069%=      5-min Rain = 0
KST2 130833Z 19007KT M02/M07 A3025 RMK A01 T10231071  RH  069%=      5-min Rain = 0
KST2 130834Z 19006KT M02/M07 A3025 RMK A01 T10221072  RH  069%=      5-min Rain = 0
KST2 130835Z 19006KT M02/M07 A3025 RMK A01 T10221073  RH  068%=      5-min Rain = 0
KST2 130836Z 19006KT M02/M07 A3025 RMK A01 T10221073  RH  068%=      5-min Rain = 0
KST2 130837Z 19007KT M02/M07 A3025 RMK A01 T10211073  RH  068%=      5-min Rain = 0
KST2 130838Z 19007KT M02/M07 A3025 RMK A01 T10211073  RH  068%=      5-min Rain = 0
KST2 130839Z 19007KT M02/M07 A3025 RMK A01 T10211074  RH  067%=      5-min Rain = 0
KST2 130840Z 19007KT M02/M07 A3025 RMK A01 T10211073  RH  067%=      5-min Rain = 0
KST2 130841Z 19007KT M02/M07 A3025 RMK A01 T10211073  RH  067%=      5-min Rain = 0
KST2 130842Z 19007KT M02/M07 A3025 RMK A01 T10211074  RH  067%=      5-min Rain = 0
KST2 130843Z 19007KT M02/M07 A3025 RMK A01 T10211074  RH  067%=      5-min Rain = 0
KST2 130844Z 19007KT M02/M07 A3025 RMK A01 T10211074  RH  067%=      5-min Rain = 0
KST2 130845Z 19008KT M02/M07 A3025 RMK A01 T10211074  RH  067%=      5-min Rain = 0
KST2 130846Z 19008KT M02/M08 A3025 RMK A01 T10211075  RH  066%=      5-min Rain = 0
KST2 130847Z 20008KT M02/M08 A3025 RMK A01 T10201075  RH  066%=      5-min Rain = 0
KST2 130848Z 19008KT M02/M08 A3025 RMK A01 T10201075  RH  066%=      5-min Rain = 0
KST2 130849Z 19008KT M02/M07 A3025 RMK A01 T10201074  RH  067%=      5-min Rain = 0
KST2 130850Z 19008KT M02/M08 A3025 RMK A01 T10201075  RH  066%=      5-min Rain = 0
KST2 130851Z 19008KT M02/M08 A3025 RMK A01 T10211075  RH  066%=      5-min Rain = 0
KST2 130852Z 19009KT M02/M08 A3025 RMK A01 T10201075  RH  066%=      5-min Rain = 0
KST2 130853Z 19008KT M02/M08 A3025 RMK A01 T10201077  RH  065%=      5-min Rain = 0
KST2 130854Z 18008KT M02/M08 A3025 RMK A01 T10201077  RH  065%=      5-min Rain = 0
KST2 130855Z 18008KT M02/M08 A3025 RMK A01 T10191077  RH  065%=      5-min Rain = 0
KST2 130856Z 18009KT M02/M08 A3025 RMK A01 T10191077  RH  065%=      5-min Rain = 0
KST2 130857Z 18009KT M02/M08 A3024 RMK A01 T10191077  RH  065%=      5-min Rain = 0
KST2 130858Z 18009KT M02/M08 A3024 RMK A01 T10191076  RH  065%=      5-min Rain = 0
KST2 130859Z 18010KT M02/M08 A3024 RMK A01 T10191077  RH  064%=      5-min Rain = 0
KST2 130900Z 18009KT M02/M08 A3024 RMK A01 T10191077  RH  064%=      5-min Rain = 0
KST2 130901Z 18009KT M02/M08 A3024 RMK A01 T10181077  RH  064%=      5-min Rain = 0
KST2 130902Z 18009KT M02/M08 A3024 RMK A01 T10191077  RH  065%=      5-min Rain = 0
KST2 130903Z 19009KT M02/M08 A3024 RMK A01 T10181077  RH  064%=      5-min Rain = 0
KST2 130904Z 18008KT M02/M08 A3024 RMK A01 T10181078  RH  064%=      5-min Rain = 0
KST2 130905Z 18008KT M02/M08 A3024 RMK A01 T10191078  RH  064%=      5-min Rain = 0
KST2 130906Z 19008KT M02/M08 A3024 RMK A01 T10191077  RH  064%=      5-min Rain = 0
KST2 130907Z 18008KT M02/M08 A3024 RMK A01 T10181078  RH  064%=      5-min Rain = 0
KST2 130908Z 19009KT M02/M08 A3024 RMK A01 T10191078  RH  064%=      5-min Rain = 0
KST2 130909Z 19008KT M02/M08 A3024 RMK A01 T10181078  RH  064%=      5-min Rain = 0
KST2 130910Z 19009KT M02/M08 A3024 RMK A01 T10191079  RH  063%=      5-min Rain = 0
KST2 130911Z 19009KT M02/M08 A3024 RMK A01 T10191079  RH  063%=      5-min Rain = 0
KST2 130912Z 19009KT M02/M08 A3024 RMK A01 T10181079  RH  063%=      5-min Rain = 0
KST2 130913Z 19009KT M02/M08 A3024 RMK A01 T10181078  RH  064%=      5-min Rain = 0
KST2 130914Z 19009KT M02/M08 A3024 RMK A01 T10191078  RH  064%=      5-min Rain = 0
KST2 130915Z 19009KT M02/M08 A3024 RMK A01 T10191079  RH  064%=      5-min Rain = 0
KST2 130916Z 19010KT M02/M08 A3024 RMK A01 T10191079  RH  064%=      5-min Rain = 0
KST2 130917Z 19010KT M02/M08 A3025 RMK A01 T10191079  RH  064%=      5-min Rain = 0
KST2 130918Z 19010KT M02/M08 A3025 RMK A01 T10191079  RH  064%=      5-min Rain = 0
KST2 130919Z 19010KT M02/M08 A3025 RMK A01 T10191080  RH  063%=      5-min Rain = 0
KST2 130920Z 19010KT M02/M08 A3024 RMK A01 T10181079  RH  063%=      5-min Rain = 0
KST2 130921Z 19008KT M02/M08 A3024 RMK A01 T10181080  RH  063%=      5-min Rain = 0
KST2 130922Z 19009KT M02/M08 A3024 RMK A01 T10181079  RH  063%=      5-min Rain = 0
KST2 130923Z 19010KT M02/M08 A3024 RMK A01 T10181079  RH  063%=      5-min Rain = 0
KST2 130924Z 19009KT M02/M08 A3024 RMK A01 T10181079  RH  063%=      5-min Rain = 0
KST2 130925Z 20010KT M02/M08 A3024 RMK A01 T10181079  RH  063%=      5-min Rain = 0
KST2 130926Z 19010KT M02/M08 A3024 RMK A01 T10181080  RH  062%=      5-min Rain = 0
KST2 130927Z 19009KT M02/M08 A3024 RMK A01 T10171081  RH  062%=      5-min Rain = 0
KST2 130928Z 19008KT M02/M08 A3025 RMK A01 T10171081  RH  062%=      5-min Rain = 0
KST2 130929Z 19009KT M02/M08 A3024 RMK A01 T10171080  RH  062%=      5-min Rain = 0
KST2 130930Z 19009KT M02/M08 A3024 RMK A01 T10171079  RH  062%=      5-min Rain = 0
KST2 130931Z 19009KT M02/M08 A3024 RMK A01 T10171080  RH  062%=      5-min Rain = 0
KST2 130932Z 19008KT M02/M08 A3024 RMK A01 T10171079  RH  062%=      5-min Rain = 0
KST2 130933Z 19009KT M02/M08 A3024 RMK A01 T10171079  RH  062%=      5-min Rain = 0
KST2 130934Z 19008KT M02/M08 A3024 RMK A01 T10171081  RH  062%=      5-min Rain = 0
KST2 130935Z 19008KT M02/M08 A3024 RMK A01 T10161080  RH  062%=      5-min Rain = 0
KST2 130936Z 19009KT M02/M08 A3024 RMK A01 T10161081  RH  061%=      5-min Rain = 0
KST2 130937Z 19009KT M02/M08 A3024 RMK A01 T10161081  RH  061%=      5-min Rain = 0
KST2 130938Z 19009KT M02/M08 A3024 RMK A01 T10151082  RH  060%=      5-min Rain = 0
KST2 130939Z 19009KT M02/M08 A3024 RMK A01 T10151081  RH  060%=      5-min Rain = 0
KST2 130940Z 19009KT M01/M08 A3024 RMK A01 T10141082  RH  060%=      5-min Rain = 0
KST2 130941Z 19008KT M01/M08 A3024 RMK A01 T10141082  RH  060%=      5-min Rain = 0
KST2 130942Z 19009KT M01/M08 A3024 RMK A01 T10131083  RH  059%=      5-min Rain = 0
KST2 130943Z 19009KT M01/M08 A3024 RMK A01 T10131083  RH  059%=      5-min Rain = 0
KST2 130944Z 20010KT M01/M08 A3024 RMK A01 T10131083  RH  059%=      5-min Rain = 0
KST2 130945Z 19011KT M01/M08 A3024 RMK A01 T10121084  RH  058%=      5-min Rain = 0
KST2 130946Z 19011KT M01/M08 A3024 RMK A01 T10121084  RH  058%=      5-min Rain = 0
KST2 130947Z 19011KT M01/M09 A3024 RMK A01 T10121085  RH  058%=      5-min Rain = 0
KST2 130948Z 19009KT M01/M09 A3023 RMK A01 T10121085  RH  058%=      5-min Rain = 0
KST2 130949Z 19008KT M01/M08 A3023 RMK A01 T10121084  RH  058%=      5-min Rain = 0
KST2 130950Z 19010KT M01/M08 A3023 RMK A01 T10121083  RH  059%=      5-min Rain = 0
KST2 130951Z 19009KT M01/M08 A3023 RMK A01 T10131084  RH  058%=      5-min Rain = 0
KST2 130952Z 19010KT M01/M09 A3023 RMK A01 T10131085  RH  058%=      5-min Rain = 0
KST2 130953Z 19010KT M01/M08 A3023 RMK A01 T10131084  RH  059%=      5-min Rain = 0
KST2 130954Z 19010KT M01/M08 A3023 RMK A01 T10141084  RH  059%=      5-min Rain = 0
KST2 130955Z 19010KT M01/M08 A3023 RMK A01 T10141084  RH  059%=      5-min Rain = 0
KST2 130956Z 19011KT M01/M08 A3023 RMK A01 T10141084  RH  059%=      5-min Rain = 0
KST2 130957Z 19011KT M01/M09 A3023 RMK A01 T10141085  RH  059%=      5-min Rain = 0
KST2 130958Z 19011KT M02/M09 A3023 RMK A01 T10151085  RH  059%=      5-min Rain = 0
KST2 130959Z 19011KT M02/M09 A3022 RMK A01 T10151085  RH  059%=      5-min Rain = 0
KST2 131000Z 19011KT M02/M09 A3022 RMK A01 T10151086  RH  059%=      5-min Rain = 0
KST2 131001Z 19010KT M02/M09 A3022 RMK A01 T10151085  RH  059%=      5-min Rain = 0
KST2 131002Z 19011KT M02/M08 A3022 RMK A01 T10151084  RH  059%=      5-min Rain = 0
KST2 131003Z 20011KT M02/M09 A3022 RMK A01 T10151085  RH  059%=      5-min Rain = 0
KST2 131004Z 19011KT M02/M08 A3023 RMK A01 T10151084  RH  059%=      5-min Rain = 0
KST2 131005Z 19010KT M02/M08 A3023 RMK A01 T10151084  RH  060%=      5-min Rain = 0
KST2 131006Z 19011KT M02/M08 A3023 RMK A01 T10151084  RH  060%=      5-min Rain = 0
KST2 131007Z 19012KT M02/M08 A3023 RMK A01 T10151084  RH  060%=      5-min Rain = 0
KST2 131008Z 19011KT M02/M08 A3023 RMK A01 T10151084  RH  059%=      5-min Rain = 0
KST2 131009Z 19011KT M02/M08 A3023 RMK A01 T10161084  RH  060%=      5-min Rain = 0
KST2 131010Z 19010KT M02/M08 A3022 RMK A01 T10161084  RH  060%=      5-min Rain = 0
KST2 131011Z 19011KT M02/M08 A3022 RMK A01 T10161083  RH  060%=      5-min Rain = 0
KST2 131012Z 19011KT M02/M08 A3022 RMK A01 T10161083  RH  060%=      5-min Rain = 0
KST2 131013Z 19012KT M02/M08 A3023 RMK A01 T10161083  RH  060%=      5-min Rain = 0
KST2 131014Z 20012KT M02/M08 A3023 RMK A01 T10161083  RH  060%=      5-min Rain = 0
KST2 131015Z 20012KT M02/M08 A3023 RMK A01 T10161084  RH  060%=      5-min Rain = 0
KST2 131016Z 20012KT M02/M08 A3023 RMK A01 T10161084  RH  060%=      5-min Rain = 0
KST2 131017Z 20011KT M02/M08 A3023 RMK A01 T10161083  RH  060%=      5-min Rain = 0
KST2 131018Z 20011KT M02/M08 A3023 RMK A01 T10171083  RH  060%=      5-min Rain = 0
KST2 131019Z 19010KT M02/M08 A3023 RMK A01 T10171083  RH  061%=      5-min Rain = 0
KST2 131020Z 19012KT M02/M08 A3022 RMK A01 T10171083  RH  061%=      5-min Rain = 0
KST2 131021Z 19011KT M02/M08 A3022 RMK A01 T10171083  RH  061%=      5-min Rain = 0
KST2 131022Z 19012KT M02/M08 A3022 RMK A01 T10171083  RH  061%=      5-min Rain = 0
KST2 131023Z 19011KT M02/M08 A3022 RMK A01 T10171083  RH  061%=      5-min Rain = 0
KST2 131024Z 19012KT M02/M08 A3022 RMK A01 T10171083  RH  061%=      5-min Rain = 0
KST2 131025Z 19011KT M02/M08 A3022 RMK A01 T10171083  RH  061%=      5-min Rain = 0
KST2 131026Z 19012KT M02/M08 A3022 RMK A01 T10171083  RH  061%=      5-min Rain = 0
KST2 131027Z 19011KT M02/M08 A3022 RMK A01 T10171083  RH  061%=      5-min Rain = 0
KST2 131028Z 19012KT M02/M08 A3021 RMK A01 T10171082  RH  061%=      5-min Rain = 0
KST2 131029Z 19012KT M02/M08 A3021 RMK A01 T10171083  RH  061%=      5-min Rain = 0
KST2 131030Z 19011KT M02/M08 A3021 RMK A01 T10181082  RH  061%=      5-min Rain = 0
KST2 131031Z 19010KT M02/M08 A3021 RMK A01 T10171082  RH  062%=      5-min Rain = 0
KST2 131032Z 19010KT M02/M08 A3021 RMK A01 T10181082  RH  062%=      5-min Rain = 0
KST2 131033Z 19010KT M02/M08 A3021 RMK A01 T10181081  RH  062%=      5-min Rain = 0
KST2 131034Z 19010KT M02/M08 A3021 RMK A01 T10191081  RH  062%=      5-min Rain = 0
KST2 131035Z 19010KT M02/M08 A3021 RMK A01 T10191082  RH  062%=      5-min Rain = 0
KST2 131036Z 19010KT M02/M08 A3021 RMK A01 T10191081  RH  063%=      5-min Rain = 0
KST2 131037Z 19010KT M02/M08 A3021 RMK A01 T10191081  RH  062%=      5-min Rain = 0
KST2 131038Z 19009KT M02/M08 A3021 RMK A01 T10191081  RH  062%=      5-min Rain = 0
KST2 131039Z 19010KT M02/M08 A3021 RMK A01 T10191081  RH  063%=      5-min Rain = 0
KST2 131040Z 19010KT M02/M08 A3021 RMK A01 T10191081  RH  063%=      5-min Rain = 0
KST2 131041Z 19011KT M02/M08 A3021 RMK A01 T10201081  RH  063%=      5-min Rain = 0
KST2 131042Z 19010KT M02/M08 A302 RMK A01 T10201082  RH  063%=      5-min Rain = 0
KST2 131043Z 19010KT M02/M08 A302 RMK A01 T10191081  RH  063%=      5-min Rain = 0
KST2 131044Z 19011KT M02/M08 A302 RMK A01 T10201081  RH  063%=      5-min Rain = 0
KST2 131045Z 19011KT M02/M08 A302 RMK A01 T10201081  RH  063%=      5-min Rain = 0
KST2 131046Z 19010KT M02/M08 A302 RMK A01 T10201081  RH  063%=      5-min Rain = 0
KST2 131047Z 19011KT M02/M08 A302 RMK A01 T10201081  RH  063%=      5-min Rain = 0
KST2 131048Z 19011KT M02/M08 A302 RMK A01 T10191081  RH  063%=      5-min Rain = 0
KST2 131049Z 19010KT M02/M08 A302 RMK A01 T10201081  RH  063%=      5-min Rain = 0
KST2 131050Z 19010KT M02/M08 A302 RMK A01 T10191080  RH  063%=      5-min Rain = 0
KST2 131051Z 19009KT M02/M08 A302 RMK A01 T10201080  RH  063%=      5-min Rain = 0
KST2 131052Z 19010KT M02/M08 A302 RMK A01 T10191079  RH  064%=      5-min Rain = 0
KST2 131053Z 19010KT M02/M08 A302 RMK A01 T10191079  RH  064%=      5-min Rain = 0
KST2 131054Z 19009KT M02/M08 A302 RMK A01 T10191079  RH  064%=      5-min Rain = 0
KST2 131055Z 19009KT M02/M08 A3019 RMK A01 T10201079  RH  064%=      5-min Rain = 0
KST2 131056Z 19011KT M02/M08 A3019 RMK A01 T10201079  RH  064%=      5-min Rain = 0
KST2 131057Z 19009KT M02/M08 A3019 RMK A01 T10201079  RH  064%=      5-min Rain = 0
KST2 131058Z 19010KT M02/M08 A3019 RMK A01 T10201078  RH  064%=      5-min Rain = 0
KST2 131059Z 19010KT M02/M08 A3019 RMK A01 T10201078  RH  064%=      5-min Rain = 0
KST2 131100Z 19010KT M02/M08 A3019 RMK A01 T10201079  RH  064%=      5-min Rain = 0
KST2 131101Z 19010KT M02/M08 A3019 RMK A01 T10201079  RH  064%=      5-min Rain = 0
KST2 131102Z 19010KT M02/M08 A3019 RMK A01 T10201079  RH  064%=      5-min Rain = 0
KST2 131103Z 19011KT M02/M08 A3019 RMK A01 T10201078  RH  064%=      5-min Rain = 0
KST2 131104Z 19011KT M02/M08 A3019 RMK A01 T10201078  RH  064%=      5-min Rain = 0
KST2 131105Z 19010KT M02/M08 A3019 RMK A01 T10201079  RH  064%=      5-min Rain = 0
KST2 131106Z 19011KT M02/M08 A3019 RMK A01 T10201079  RH  064%=      5-min Rain = 0
KST2 131107Z 19010KT M02/M08 A3019 RMK A01 T10201079  RH  064%=      5-min Rain = 0
KST2 131108Z 19011KT M02/M08 A3019 RMK A01 T10191078  RH  064%=      5-min Rain = 0
KST2 131109Z 19010KT M02/M08 A3019 RMK A01 T10201078  RH  064%=      5-min Rain = 0
KST2 131110Z 19010KT M02/M08 A3019 RMK A01 T10191078  RH  064%=      5-min Rain = 0
KST2 131111Z 19010KT M02/M08 A3019 RMK A01 T10201078  RH  064%=      5-min Rain = 0
KST2 131112Z 19010KT M02/M08 A3019 RMK A01 T10201078  RH  064%=      5-min Rain = 0
KST2 131113Z 19009KT M02/M08 A3019 RMK A01 T10201078  RH  064%=      5-min Rain = 0
KST2 131114Z 19010KT M02/M08 A3019 RMK A01 T10201078  RH  064%=      5-min Rain = 0
KST2 131115Z 19009KT M02/M08 A3019 RMK A01 T10201077  RH  065%=      5-min Rain = 0
KST2 131116Z 18009KT M02/M08 A3019 RMK A01 T10191077  RH  065%=      5-min Rain = 0
KST2 131117Z 19010KT M02/M08 A3019 RMK A01 T10201077  RH  065%=      5-min Rain = 0
KST2 131118Z 19009KT M02/M08 A3019 RMK A01 T10201077  RH  065%=      5-min Rain = 0
KST2 131119Z 19010KT M02/M08 A3019 RMK A01 T10191077  RH  065%=      5-min Rain = 0
KST2 131120Z 19010KT M02/M08 A3019 RMK A01 T10201078  RH  064%=      5-min Rain = 0
KST2 131121Z 19010KT M02/M08 A3018 RMK A01 T10201079  RH  064%=      5-min Rain = 0
KST2 131122Z 19009KT M02/M08 A3019 RMK A01 T10191078  RH  064%=      5-min Rain = 0
KST2 131123Z 19009KT M02/M08 A3019 RMK A01 T10191078  RH  064%=      5-min Rain = 0
KST2 131124Z 19010KT M02/M08 A3019 RMK A01 T10191078  RH  064%=      5-min Rain = 0
KST2 131125Z 19009KT M02/M08 A3018 RMK A01 T10191079  RH  064%=      5-min Rain = 0
KST2 131126Z 19009KT M02/M08 A3018 RMK A01 T10191078  RH  064%=      5-min Rain = 0
KST2 131127Z 19009KT M02/M08 A3018 RMK A01 T10191079  RH  063%=      5-min Rain = 0
KST2 131128Z 19009KT M02/M08 A3018 RMK A01 T10181079  RH  063%=      5-min Rain = 0
KST2 131129Z 19009KT M02/M08 A3018 RMK A01 T10181078  RH  063%=      5-min Rain = 0
KST2 131130Z 19010KT M02/M08 A3018 RMK A01 T10191079  RH  063%=      5-min Rain = 0
KST2 131131Z 19009KT M02/M08 A3018 RMK A01 T10181079  RH  063%=      5-min Rain = 0
KST2 131132Z 18010KT M02/M08 A3018 RMK A01 T10181079  RH  063%=      5-min Rain = 0
KST2 131133Z 19010KT M02/M08 A3017 RMK A01 T10181079  RH  063%=      5-min Rain = 0
KST2 131134Z 19010KT M02/M08 A3017 RMK A01 T10171079  RH  063%=      5-min Rain = 0
KST2 131135Z 19011KT M02/M08 A3017 RMK A01 T10171080  RH  062%=      5-min Rain = 0
KST2 131136Z 19009KT M02/M08 A3017 RMK A01 T10171080  RH  062%=      5-min Rain = 0
KST2 131137Z 19010KT M02/M08 A3017 RMK A01 T10171080  RH  062%=      5-min Rain = 0
KST2 131138Z 19010KT M02/M08 A3017 RMK A01 T10161080  RH  062%=      5-min Rain = 0
KST2 131139Z 19010KT M02/M08 A3017 RMK A01 T10161080  RH  061%=      5-min Rain = 0
KST2 131140Z 19010KT M02/M08 A3017 RMK A01 T10161080  RH  062%=      5-min Rain = 0
KST2 131141Z 19010KT M02/M08 A3017 RMK A01 T10151080  RH  062%=      5-min Rain = 0
KST2 131142Z 19010KT M02/M08 A3017 RMK A01 T10151080  RH  061%=      5-min Rain = 0
KST2 131143Z 19010KT M02/M08 A3017 RMK A01 T10151080  RH  061%=      5-min Rain = 0
KST2 131144Z 18011KT M02/M08 A3017 RMK A01 T10151080  RH  061%=      5-min Rain = 0
KST2 131145Z 19011KT M02/M08 A3017 RMK A01 T10151081  RH  061%=      5-min Rain = 0
KST2 131146Z 19011KT M01/M08 A3017 RMK A01 T10141081  RH  060%=      5-min Rain = 0
KST2 131147Z 19012KT M01/M08 A3017 RMK A01 T10141081  RH  060%=      5-min Rain = 0
KST2 131148Z 19012KT M01/M08 A3017 RMK A01 T10141083  RH  059%=      5-min Rain = 0
KST2 131149Z 18011KT M01/M08 A3016 RMK A01 T10131083  RH  059%=      5-min Rain = 0
KST2 131150Z 19011KT M01/M08 A3016 RMK A01 T10131082  RH  059%=      5-min Rain = 0
KST2 131151Z 19012KT M01/M08 A3016 RMK A01 T10131082  RH  059%=      5-min Rain = 0
KST2 131152Z 19012KT M01/M08 A3017 RMK A01 T10131083  RH  059%=      5-min Rain = 0
KST2 131153Z 19012KT M01/M08 A3017 RMK A01 T10121084  RH  058%=      5-min Rain = 0
KST2 131154Z 19012KT M01/M08 A3017 RMK A01 T10121084  RH  058%=      5-min Rain = 0
KST2 131155Z 19012KT M01/M08 A3016 RMK A01 T10121084  RH  058%=      5-min Rain = 0
KST2 131156Z 19010KT M01/M08 A3016 RMK A01 T10111084  RH  058%=      5-min Rain = 0
KST2 131157Z 19012KT M01/M08 A3016 RMK A01 T10111084  RH  058%=      5-min Rain = 0
KST2 131158Z 19012KT M01/M08 A3016 RMK A01 T10111084  RH  058%=      5-min Rain = 0
KST2 131159Z 19012KT M01/M09 A3016 RMK A01 T10111085  RH  057%=      5-min Rain = 0
KST2 131200Z 19013KT M01/M09 A3016 RMK A01 T10111085  RH  057%=      5-min Rain = 0
KST2 131201Z 19013KT M01/M09 A3016 RMK A01 T10111086  RH  057%=      5-min Rain = 0
KST2 131202Z 19013KT M01/M09 A3016 RMK A01 T10101086  RH  056%=      5-min Rain = 0
KST2 131203Z 19012KT M01/M09 A3016 RMK A01 T10101086  RH  056%=      5-min Rain = 0
KST2 131204Z 19012KT M01/M09 A3016 RMK A01 T10101086  RH  056%=      5-min Rain = 0
KST2 131205Z 19012KT M01/M09 A3016 RMK A01 T10101086  RH  056%=      5-min Rain = 0
KST2 131206Z 19013KT M01/M09 A3016 RMK A01 T10101086  RH  056%=      5-min Rain = 0
KST2 131207Z 19011KT M01/M09 A3016 RMK A01 T10101086  RH  056%=      5-min Rain = 0
KST2 131208Z 19012KT M01/M09 A3015 RMK A01 T10101086  RH  056%=      5-min Rain = 0
KST2 131209Z 19012KT M01/M09 A3015 RMK A01 T10101087  RH  056%=      5-min Rain = 0
KST2 131210Z 19011KT M01/M09 A3015 RMK A01 T10101086  RH  056%=      5-min Rain = 0
KST2 131211Z 19011KT M01/M09 A3015 RMK A01 T10111086  RH  057%=      5-min Rain = 0
KST2 131212Z 19011KT M01/M09 A3015 RMK A01 T10111086  RH  057%=      5-min Rain = 0
KST2 131213Z 19011KT M01/M09 A3015 RMK A01 T10111085  RH  057%=      5-min Rain = 0
KST2 131214Z 19011KT M01/M09 A3015 RMK A01 T10111085  RH  057%=      5-min Rain = 0
KST2 131215Z 19010KT M01/M09 A3015 RMK A01 T10121086  RH  057%=      5-min Rain = 0
KST2 131216Z 18011KT M01/M09 A3015 RMK A01 T10121085  RH  057%=      5-min Rain = 0
KST2 131217Z 18010KT M01/M09 A3015 RMK A01 T10121085  RH  058%=      5-min Rain = 0
KST2 131218Z 18010KT M01/M09 A3015 RMK A01 T10121085  RH  058%=      5-min Rain = 0
KST2 131219Z 18010KT M01/M09 A3015 RMK A01 T10131085  RH  058%=      5-min Rain = 0
KST2 131220Z 18010KT M01/M09 A3015 RMK A01 T10121085  RH  058%=      5-min Rain = 0
KST2 131221Z 18010KT M01/M09 A3015 RMK A01 T10131085  RH  058%=      5-min Rain = 0
KST2 131222Z 18009KT M01/M09 A3015 RMK A01 T10121085  RH  058%=      5-min Rain = 0
KST2 131223Z 18009KT M01/M08 A3015 RMK A01 T10131084  RH  059%=      5-min Rain = 0
KST2 131224Z 18008KT M01/M08 A3015 RMK A01 T10131083  RH  059%=      5-min Rain = 0
KST2 131225Z 18010KT M01/M08 A3015 RMK A01 T10141083  RH  059%=      5-min Rain = 0
KST2 131226Z 18010KT M01/M08 A3015 RMK A01 T10141084  RH  059%=      5-min Rain = 0
KST2 131227Z 18009KT M01/M09 A3015 RMK A01 T10141085  RH  059%=      5-min Rain = 0
KST2 131228Z 18009KT M01/M08 A3015 RMK A01 T10141083  RH  059%=      5-min Rain = 0
KST2 131229Z 18008KT M02/M08 A3015 RMK A01 T10151083  RH  060%=      5-min Rain = 0
KST2 131230Z 18009KT M02/M08 A3014 RMK A01 T10151083  RH  060%=      5-min Rain = 0
KST2 131231Z 18009KT M02/M08 A3014 RMK A01 T10151082  RH  060%=      5-min Rain = 0
KST2 131232Z 18009KT M02/M08 A3014 RMK A01 T10161082  RH  061%=      5-min Rain = 0
KST2 131233Z 18010KT M02/M08 A3014 RMK A01 T10161081  RH  061%=      5-min Rain = 0
KST2 131234Z 18011KT M02/M08 A3014 RMK A01 T10161081  RH  061%=      5-min Rain = 0
KST2 131235Z 18011KT M02/M08 A3014 RMK A01 T10161082  RH  061%=      5-min Rain = 0
KST2 131236Z 18011KT M02/M08 A3014 RMK A01 T10161082  RH  061%=      5-min Rain = 0
KST2 131237Z 18010KT M02/M08 A3014 RMK A01 T10161083  RH  060%=      5-min Rain = 0
KST2 131238Z 18009KT M02/M08 A3014 RMK A01 T10161081  RH  061%=      5-min Rain = 0
KST2 131239Z 18010KT M02/M08 A3014 RMK A01 T10161081  RH  061%=      5-min Rain = 0
KST2 131240Z 18009KT M02/M08 A3014 RMK A01 T10161081  RH  061%=      5-min Rain = 0
KST2 131241Z 18010KT M02/M08 A3014 RMK A01 T10161081  RH  061%=      5-min Rain = 0
KST2 131242Z 18011KT M02/M08 A3015 RMK A01 T10161082  RH  061%=      5-min Rain = 0
KST2 131243Z 18011KT M02/M08 A3015 RMK A01 T10171083  RH  060%=      5-min Rain = 0
KST2 131244Z 18009KT M02/M08 A3014 RMK A01 T10171083  RH  061%=      5-min Rain = 0
KST2 131245Z 18009KT M02/M08 A3014 RMK A01 T10171082  RH  061%=      5-min Rain = 0
KST2 131246Z 18010KT M02/M08 A3014 RMK A01 T10171081  RH  061%=      5-min Rain = 0
KST2 131247Z 18009KT M02/M08 A3014 RMK A01 T10171081  RH  061%=      5-min Rain = 0
KST2 131248Z 18010KT M02/M08 A3014 RMK A01 T10171081  RH  062%=      5-min Rain = 0
KST2 131249Z 18010KT M02/M08 A3014 RMK A01 T10171082  RH  061%=      5-min Rain = 0
KST2 131250Z 18010KT M02/M08 A3014 RMK A01 T10171082  RH  061%=      5-min Rain = 0
KST2 131251Z 19010KT M02/M08 A3014 RMK A01 T10171081  RH  061%=      5-min Rain = 0
KST2 131252Z 18009KT M02/M08 A3014 RMK A01 T10171082  RH  061%=      5-min Rain = 0
KST2 131253Z 18010KT M02/M08 A3014 RMK A01 T10171082  RH  061%=      5-min Rain = 0
KST2 131254Z 18010KT M02/M08 A3014 RMK A01 T10171083  RH  061%=      5-min Rain = 0
KST2 131255Z 18009KT M02/M08 A3014 RMK A01 T10171083  RH  061%=      5-min Rain = 0
KST2 131256Z 19009KT M02/M08 A3014 RMK A01 T10161082  RH  061%=      5-min Rain = 0
KST2 131257Z 19008KT M02/M08 A3014 RMK A01 T10171083  RH  061%=      5-min Rain = 0
KST2 131258Z 19008KT M02/M08 A3014 RMK A01 T10171082  RH  061%=      5-min Rain = 0
KST2 131259Z 19009KT M02/M08 A3014 RMK A01 T10171082  RH  061%=      5-min Rain = 0
KST2 131300Z 19009KT M02/M08 A3014 RMK A01 T10171082  RH  061%=      5-min Rain = 0
KST2 131301Z 19009KT M02/M08 A3014 RMK A01 T10171082  RH  061%=      5-min Rain = 0
KST2 131302Z 19008KT M02/M08 A3014 RMK A01 T10161083  RH  061%=      5-min Rain = 0
KST2 131303Z 19009KT M02/M08 A3014 RMK A01 T10161082  RH  061%=      5-min Rain = 0
KST2 131304Z 19009KT M02/M08 A3014 RMK A01 T10161082  RH  061%=      5-min Rain = 0
KST2 131305Z 19010KT M02/M08 A3014 RMK A01 T10161082  RH  060%=      5-min Rain = 0
KST2 131306Z 19010KT M02/M08 A3014 RMK A01 T10151082  RH  061%=      5-min Rain = 0
KST2 131307Z 19011KT M02/M08 A3014 RMK A01 T10151083  RH  060%=      5-min Rain = 0
KST2 131308Z 19010KT M01/M08 A3014 RMK A01 T10141082  RH  060%=      5-min Rain = 0
KST2 131309Z 19012KT M01/M08 A3014 RMK A01 T10141082  RH  060%=      5-min Rain = 0
KST2 131310Z 19011KT M01/M08 A3014 RMK A01 T10141083  RH  059%=      5-min Rain = 0
KST2 131311Z 19010KT M01/M08 A3014 RMK A01 T10141083  RH  059%=      5-min Rain = 0
KST2 131312Z 19010KT M01/M08 A3014 RMK A01 T10141082  RH  060%=      5-min Rain = 0
KST2 131313Z 19010KT M01/M08 A3014 RMK A01 T10131082  RH  060%=      5-min Rain = 0
KST2 131314Z 19009KT M01/M08 A3014 RMK A01 T10131082  RH  060%=      5-min Rain = 0
KST2 131315Z 19012KT M01/M08 A3014 RMK A01 T10131082  RH  060%=      5-min Rain = 0
KST2 131316Z 19010KT M01/M08 A3014 RMK A01 T10131082  RH  059%=      5-min Rain = 0
KST2 131317Z 19009KT M01/M08 A3014 RMK A01 T10131082  RH  059%=      5-min Rain = 0
KST2 131318Z 19009KT M01/M08 A3014 RMK A01 T10131081  RH  060%=      5-min Rain = 0
KST2 131319Z 20011KT M01/M08 A3014 RMK A01 T10131081  RH  060%=      5-min Rain = 0
KST2 131320Z 19011KT M01/M08 A3014 RMK A01 T10131082  RH  059%=      5-min Rain = 0
KST2 131321Z 19011KT M01/M08 A3014 RMK A01 T10121082  RH  059%=      5-min Rain = 0
KST2 131322Z 19011KT M01/M08 A3014 RMK A01 T10121082  RH  059%=      5-min Rain = 0
KST2 131323Z 19010KT M01/M08 A3014 RMK A01 T10121082  RH  059%=      5-min Rain = 0
KST2 131324Z 19011KT M01/M08 A3014 RMK A01 T10121082  RH  059%=      5-min Rain = 0
KST2 131325Z 19012KT M01/M08 A3014 RMK A01 T10111082  RH  058%=      5-min Rain = 0
KST2 131326Z 19010KT M01/M08 A3014 RMK A01 T10111082  RH  058%=      5-min Rain = 0
KST2 131327Z 19012KT M01/M08 A3014 RMK A01 T10111081  RH  059%=      5-min Rain = 0
KST2 131328Z 19012KT M01/M08 A3014 RMK A01 T10111083  RH  058%=      5-min Rain = 0
KST2 131329Z 19012KT M01/M08 A3014 RMK A01 T10101083  RH  058%=      5-min Rain = 0
KST2 131330Z 19011KT M01/M08 A3014 RMK A01 T10101083  RH  058%=      5-min Rain = 0
KST2 131331Z 19012KT M01/M08 A3014 RMK A01 T10101082  RH  058%=      5-min Rain = 0
KST2 131332Z 19012KT M01/M08 A3014 RMK A01 T10101082  RH  058%=      5-min Rain = 0
KST2 131333Z 19011KT M01/M08 A3014 RMK A01 T10101082  RH  058%=      5-min Rain = 0
KST2 131334Z 19012KT M01/M08 A3014 RMK A01 T10091081  RH  058%=      5-min Rain = 0
KST2 131335Z 19011KT M01/M08 A3014 RMK A01 T10091082  RH  058%=      5-min Rain = 0
KST2 131336Z 19011KT M01/M08 A3014 RMK A01 T10091082  RH  058%=      5-min Rain = 0
KST2 131337Z 19013KT M01/M08 A3014 RMK A01 T10091082  RH  057%=      5-min Rain = 0
KST2 131338Z 19012KT M01/M08 A3014 RMK A01 T10091082  RH  057%=      5-min Rain = 0
KST2 131339Z 19012KT M01/M08 A3014 RMK A01 T10081082  RH  058%=      5-min Rain = 0
KST2 131340Z 19011KT M01/M08 A3014 RMK A01 T10081081  RH  058%=      5-min Rain = 0
KST2 131341Z 19013KT M01/M08 A3014 RMK A01 T10071081  RH  057%=      5-min Rain = 0
KST2 131342Z 19012KT M01/M08 A3014 RMK A01 T10071082  RH  057%=      5-min Rain = 0
KST2 131343Z 19011KT M01/M08 A3014 RMK A01 T10071081  RH  057%=      5-min Rain = 0
KST2 131344Z 19012KT M01/M08 A3014 RMK A01 T10061081  RH  057%=      5-min Rain = 0
KST2 131345Z 19014KT M01/M08 A3014 RMK A01 T10061081  RH  057%=      5-min Rain = 0
KST2 131346Z 19013KT M01/M08 A3014 RMK A01 T10061082  RH  056%=      5-min Rain = 0
KST2 131347Z 19011KT M01/M08 A3014 RMK A01 T10051082  RH  056%=      5-min Rain = 0
KST2 131348Z 19012KT M01/M08 A3015 RMK A01 T10051081  RH  057%=      5-min Rain = 0
KST2 131349Z 19012KT M01/M08 A3014 RMK A01 T10051080  RH  057%=      5-min Rain = 0
KST2 131350Z 19012KT M01/M08 A3014 RMK A01 T10051081  RH  057%=      5-min Rain = 0
KST2 131351Z 19014KT M01/M08 A3014 RMK A01 T10051080  RH  057%=      5-min Rain = 0
KST2 131352Z 19012KT M00/M08 A3014 RMK A01 T10041080  RH  056%=      5-min Rain = 0
KST2 131353Z 19013KT M00/M08 A3014 RMK A01 T10041080  RH  056%=      5-min Rain = 0
KST2 131354Z 19011KT M00/M08 A3014 RMK A01 T10041080  RH  056%=      5-min Rain = 0
KST2 131355Z 20012KT M00/M08 A3014 RMK A01 T10041079  RH  057%=      5-min Rain = 0
KST2 131356Z 20011KT M00/M08 A3014 RMK A01 T10041079  RH  057%=      5-min Rain = 0
KST2 131357Z 20011KT M00/M08 A3014 RMK A01 T10041078  RH  057%=      5-min Rain = 0
KST2 131358Z 19012KT M00/M08 A3014 RMK A01 T10041078  RH  057%=      5-min Rain = 0
KST2 131359Z 19013KT M00/M08 A3014 RMK A01 T10041079  RH  057%=      5-min Rain = 0
KST2 131400Z 19013KT M00/M08 A3014 RMK A01 T10041079  RH  057%=      5-min Rain = 0
KST2 131401Z 20012KT M00/M08 A3014 RMK A01 T10031078  RH  057%=      5-min Rain = 0
KST2 131402Z 19012KT M00/M08 A3014 RMK A01 T10031078  RH  057%=      5-min Rain = 0
KST2 131403Z 19011KT M00/M08 A3014 RMK A01 T10031078  RH  057%=      5-min Rain = 0
KST2 131404Z 19011KT M00/M08 A3014 RMK A01 T10021077  RH  057%=      5-min Rain = 0
KST2 131405Z 19012KT M00/M08 A3014 RMK A01 T10021077  RH  057%=      5-min Rain = 0
KST2 131406Z 19013KT M00/M08 A3014 RMK A01 T10021077  RH  057%=      5-min Rain = 0
KST2 131407Z 18012KT M00/M08 A3014 RMK A01 T10011078  RH  056%=      5-min Rain = 0
KST2 131408Z 19012KT M00/M08 A3014 RMK A01 T10011078  RH  056%=      5-min Rain = 0
KST2 131409Z 18012KT M00/M08 A3014 RMK A01 T10011078  RH  056%=      5-min Rain = 0
KST2 131410Z 19012KT M00/M08 A3014 RMK A01 T10011078  RH  056%=      5-min Rain = 0
KST2 131411Z 19011KT 00/08 A3014 RMK A01 T00-00-77  RH  056%=      5-min Rain = 0
KST2 131412Z 19012KT 00/08 A3014 RMK A01 T00-00-77  RH  056%=      5-min Rain = 0
KST2 131413Z 19012KT 00/08 A3014 RMK A01 T00-00-77  RH  056%=      5-min Rain = 0
KST2 131414Z 19013KT 00/08 A3014 RMK A01 T00000-76  RH  056%=      5-min Rain = 0
KST2 131415Z 19013KT 00/08 A3014 RMK A01 T00000-77  RH  056%=      5-min Rain = 0
KST2 131416Z 19013KT 00/M08 A3014 RMK A01 T00011077  RH  056%=      5-min Rain = 0
KST2 131417Z 19014KT 00/M08 A3014 RMK A01 T00011077  RH  056%=      5-min Rain = 0
KST2 131418Z 19013KT 00/M08 A3014 RMK A01 T00011077  RH  056%=      5-min Rain = 0
KST2 131419Z 19013KT 00/M08 A3014 RMK A01 T00011077  RH  056%=      5-min Rain = 0
KST2 131420Z 19013KT 00/M08 A3014 RMK A01 T00021076  RH  056%=      5-min Rain = 0
KST2 131421Z 19012KT 00/M08 A3014 RMK A01 T00021076  RH  056%=      5-min Rain = 0
KST2 131422Z 19012KT 00/M08 A3014 RMK A01 T00021075  RH  056%=      5-min Rain = 0
KST2 131423Z 19012KT 00/M08 A3014 RMK A01 T00031075  RH  056%=      5-min Rain = 0
KST2 131424Z 19012KT 00/M07 A3014 RMK A01 T00031074  RH  056%=      5-min Rain = 0
KST2 131425Z 20012KT 00/M07 A3014 RMK A01 T00031074  RH  056%=      5-min Rain = 0
KST2 131426Z 19013KT 00/M08 A3014 RMK A01 T00041075  RH  056%=      5-min Rain = 0
KST2 131427Z 19013KT 00/M08 A3014 RMK A01 T00041075  RH  055%=      5-min Rain = 0
KST2 131428Z 19014KT 00/M08 A3014 RMK A01 T00041075  RH  055%=      5-min Rain = 0
KST2 131429Z 19013KT 00/M08 A3014 RMK A01 T00041076  RH  055%=      5-min Rain = 0
KST2 131430Z 19013KT 01/M08 A3014 RMK A01 T00051076  RH  055%=      5-min Rain = 0
KST2 131431Z 19013KT 01/M08 A3013 RMK A01 T00051075  RH  055%=      5-min Rain = 0
KST2 131432Z 19013KT 01/M08 A3013 RMK A01 T00051075  RH  055%=      5-min Rain = 0
KST2 131433Z 19013KT 01/M08 A3013 RMK A01 T00051076  RH  055%=      5-min Rain = 0
KST2 131434Z 19012KT 01/M08 A3013 RMK A01 T00061075  RH  055%=      5-min Rain = 0
KST2 131435Z 19013KT 01/M07 A3013 RMK A01 T00061074  RH  055%=      5-min Rain = 0
KST2 131436Z 19012KT 01/M07 A3013 RMK A01 T00061074  RH  055%=      5-min Rain = 0
KST2 131437Z 19013KT 01/M07 A3013 RMK A01 T00061073  RH  055%=      5-min Rain = 0
KST2 131438Z 19014KT 01/M07 A3013 RMK A01 T00071074  RH  055%=      5-min Rain = 0
KST2 131439Z 19011KT 01/M07 A3013 RMK A01 T00071074  RH  055%=      5-min Rain = 0
KST2 131440Z 19012KT 01/M07 A3013 RMK A01 T00071072  RH  055%=      5-min Rain = 0
KST2 131441Z 19013KT 01/M07 A3013 RMK A01 T00081072  RH  055%=      5-min Rain = 0
KST2 131442Z 19012KT 01/M07 A3013 RMK A01 T00081072  RH  055%=      5-min Rain = 0
KST2 131443Z 19013KT 01/M07 A3013 RMK A01 T00081072  RH  055%=      5-min Rain = 0
KST2 131444Z 19012KT 01/M07 A3013 RMK A01 T00081072  RH  055%=      5-min Rain = 0
KST2 131445Z 19012KT 01/M07 A3013 RMK A01 T00081072  RH  055%=      5-min Rain = 0
KST2 131446Z 19012KT 01/M07 A3013 RMK A01 T00091071  RH  055%=      5-min Rain = 0
KST2 131447Z 19011KT 01/M07 A3013 RMK A01 T00091071  RH  055%=      5-min Rain = 0
KST2 131448Z 19012KT 01/M07 A3013 RMK A01 T00101071  RH  055%=      5-min Rain = 0
KST2 131449Z 19010KT 01/M07 A3013 RMK A01 T00101069  RH  055%=      5-min Rain = 0
KST2 131450Z 18011KT 01/M07 A3013 RMK A01 T00111069  RH  055%=      5-min Rain = 0
KST2 131451Z 18011KT 01/M07 A3013 RMK A01 T00111069  RH  055%=      5-min Rain = 0
KST2 131452Z 18012KT 01/M07 A3013 RMK A01 T00121068  RH  055%=      5-min Rain = 0
KST2 131453Z 19011KT 01/M07 A3013 RMK A01 T00121069  RH  055%=      5-min Rain = 0
KST2 131454Z 18011KT 01/M07 A3013 RMK A01 T00121068  RH  055%=      5-min Rain = 0
KST2 131455Z 18013KT 01/M07 A3013 RMK A01 T00121068  RH  055%=      5-min Rain = 0
KST2 131456Z 18012KT 01/M07 A3013 RMK A01 T00121068  RH  055%=      5-min Rain = 0
KST2 131457Z 18014KT 01/M07 A3013 RMK A01 T00131069  RH  055%=      5-min Rain = 0
KST2 131458Z 18014KT 01/M07 A3013 RMK A01 T00131069  RH  054%=      5-min Rain = 0
KST2 131459Z 18014KT 01/M07 A3012 RMK A01 T00141069  RH  054%=      5-min Rain = 0
KST2 131500Z 19014KT 01/M07 A3013 RMK A01 T00141070  RH  054%=      5-min Rain = 0
KST2 131501Z 18012KT 01/M07 A3012 RMK A01 T00141069  RH  054%=      5-min Rain = 0
KST2 131502Z 18012KT 01/M07 A3012 RMK A01 T00141069  RH  054%=      5-min Rain = 0
KST2 131503Z 18013KT 02/M07 A3012 RMK A01 T00151068  RH  054%=      5-min Rain = 0
KST2 131504Z 18013KT 02/M07 A3013 RMK A01 T00161067  RH  054%=      5-min Rain = 0
KST2 131505Z 18013KT 02/M07 A3012 RMK A01 T00151069  RH  054%=      5-min Rain = 0
KST2 131506Z 19012KT 02/M07 A3013 RMK A01 T00161070  RH  053%=      5-min Rain = 0
KST2 131507Z 18010KT 02/M07 A3012 RMK A01 T00161068  RH  054%=      5-min Rain = 0
KST2 131508Z 19009KT 02/M07 A3012 RMK A01 T00161068  RH  054%=      5-min Rain = 0
KST2 131509Z 18013KT 02/M07 A3012 RMK A01 T00171066  RH  054%=      5-min Rain = 0
KST2 131510Z 19013KT 02/M07 A3012 RMK A01 T00171068  RH  053%=      5-min Rain = 0
KST2 131511Z 18013KT 02/M07 A3012 RMK A01 T00171068  RH  053%=      5-min Rain = 0
KST2 131512Z 18013KT 02/M07 A3012 RMK A01 T00171069  RH  053%=      5-min Rain = 0
KST2 131513Z 18012KT 02/M07 A3012 RMK A01 T00171069  RH  053%=      5-min Rain = 0
KST2 131514Z 18011KT 02/M07 A3012 RMK A01 T00181068  RH  053%=      5-min Rain = 0
KST2 131515Z 18011KT 02/M07 A3012 RMK A01 T00181066  RH  054%=      5-min Rain = 0
KST2 131516Z 18011KT 02/M07 A3012 RMK A01 T00191066  RH  053%=      5-min Rain = 0
KST2 131517Z 18012KT 02/M07 A3012 RMK A01 T00191066  RH  053%=      5-min Rain = 0
KST2 131518Z 18011KT 02/M07 A3012 RMK A01 T00191066  RH  053%=      5-min Rain = 0
KST2 131519Z 19012KT 02/M07 A3012 RMK A01 T00191066  RH  053%=      5-min Rain = 0
KST2 131520Z 18012KT 02/M07 A3012 RMK A01 T00201067  RH  053%=      5-min Rain = 0
KST2 131521Z 19011KT 02/M07 A3012 RMK A01 T00211067  RH  052%=      5-min Rain = 0
KST2 131522Z 18011KT 02/M07 A3012 RMK A01 T00211066  RH  052%=      5-min Rain = 0
KST2 131523Z 19012KT 02/M07 A3012 RMK A01 T00221066  RH  052%=      5-min Rain = 0
KST2 131524Z 18010KT 02/M07 A3012 RMK A01 T00221066  RH  052%=      5-min Rain = 0
KST2 131525Z 18012KT 02/M07 A3012 RMK A01 T00231065  RH  053%=      5-min Rain = 0
KST2 131526Z 19011KT 02/M07 A3012 RMK A01 T00231066  RH  052%=      5-min Rain = 0
KST2 131527Z 18009KT 02/M06 A3012 RMK A01 T00241063  RH  053%=      5-min Rain = 0
KST2 131528Z 19014KT 03/M06 A3012 RMK A01 T00251063  RH  052%=      5-min Rain = 0
KST2 131529Z 19012KT 03/M06 A3012 RMK A01 T00251064  RH  052%=      5-min Rain = 0
KST2 131530Z 19011KT 03/M06 A3012 RMK A01 T00261063  RH  052%=      5-min Rain = 0
KST2 131531Z 19012KT 03/M06 A3012 RMK A01 T00261063  RH  052%=      5-min Rain = 0
KST2 131532Z 19012KT 03/M06 A3012 RMK A01 T00271061  RH  052%=      5-min Rain = 0
KST2 131533Z 19011KT 03/M06 A3012 RMK A01 T00271061  RH  052%=      5-min Rain = 0
KST2 131534Z 19015KT 03/M06 A3012 RMK A01 T00271062  RH  052%=      5-min Rain = 0
KST2 131535Z 19013KT 03/M07 A3012 RMK A01 T00271065  RH  051%=      5-min Rain = 0
KST2 131536Z 19011KT 03/M06 A3012 RMK A01 T00271064  RH  051%=      5-min Rain = 0
KST2 131537Z 19011KT 03/M06 A3012 RMK A01 T00271062  RH  052%=      5-min Rain = 0
KST2 131538Z 19011KT 03/M06 A3012 RMK A01 T00271064  RH  051%=      5-min Rain = 0
KST2 131539Z 19013KT 03/M06 A3012 RMK A01 T00281064  RH  051%=      5-min Rain = 0
KST2 131540Z 19014KT 03/M07 A3012 RMK A01 T00281065  RH  050%=      5-min Rain = 0
KST2 131541Z 19013KT 03/M07 A3012 RMK A01 T00281065  RH  050%=      5-min Rain = 0
KST2 131542Z 19011KT 03/M06 A3012 RMK A01 T00291064  RH  051%=      5-min Rain = 0
KST2 131543Z 19013KT 03/M06 A3012 RMK A01 T00291064  RH  051%=      5-min Rain = 0
KST2 131544Z 18012KT 03/M07 A3012 RMK A01 T00291065  RH  050%=      5-min Rain = 0
KST2 131545Z 19010KT 03/M06 A3012 RMK A01 T00301061  RH  051%=      5-min Rain = 0
KST2 131546Z 19011KT 03/M06 A3012 RMK A01 T00301062  RH  051%=      5-min Rain = 0
KST2 131547Z 19011KT 03/M06 A3012 RMK A01 T00301064  RH  050%=      5-min Rain = 0
KST2 131548Z 19011KT 03/M06 A3012 RMK A01 T00311063  RH  050%=      5-min Rain = 0
KST2 131549Z 19009KT 03/M06 A3012 RMK A01 T00311063  RH  050%=      5-min Rain = 0
KST2 131550Z 19010KT 03/M06 A3012 RMK A01 T00321060  RH  051%=      5-min Rain = 0
KST2 131551Z 19011KT 03/M06 A3012 RMK A01 T00331059  RH  051%=      5-min Rain = 0
KST2 131552Z 19012KT 03/M06 A3012 RMK A01 T00331059  RH  051%=      5-min Rain = 0
KST2 131553Z 19012KT 03/M06 A3012 RMK A01 T00341062  RH  050%=      5-min Rain = 0
KST2 131554Z 19011KT 03/M06 A3012 RMK A01 T00341063  RH  049%=      5-min Rain = 0
KST2 131555Z 18011KT 03/M06 A3012 RMK A01 T00341060  RH  050%=      5-min Rain = 0
KST2 131556Z 18011KT 04/M06 A3012 RMK A01 T00351059  RH  050%=      5-min Rain = 0
KST2 131557Z 19010KT 04/M06 A3012 RMK A01 T00351060  RH  050%=      5-min Rain = 0
KST2 131558Z 18012KT 04/M06 A3012 RMK A01 T00351060  RH  050%=      5-min Rain = 0
KST2 131559Z 18011KT 04/M06 A3012 RMK A01 T00361058  RH  050%=      5-min Rain = 0
KST2 131600Z 18010KT 04/M06 A3012 RMK A01 T00361058  RH  050%=      5-min Rain = 0
KST2 131601Z 19009KT 04/M06 A3012 RMK A01 T00371055  RH  051%=      5-min Rain = 0
KST2 131602Z 19009KT 04/M06 A3012 RMK A01 T00381055  RH  051%=      5-min Rain = 0
KST2 131603Z 19009KT 04/M06 A3012 RMK A01 T00381055  RH  051%=      5-min Rain = 0
KST2 131604Z 19010KT 04/M06 A3012 RMK A01 T00391055  RH  050%=      5-min Rain = 0
KST2 131605Z 18009KT 04/M06 A3012 RMK A01 T00391056  RH  050%=      5-min Rain = 0
KST2 131606Z 18010KT 04/M06 A3012 RMK A01 T00401055  RH  050%=      5-min Rain = 0
KST2 131607Z 19013KT 04/M06 A3012 RMK A01 T00401057  RH  049%=      5-min Rain = 0
KST2 131608Z 19012KT 04/M06 A3011 RMK A01 T00401058  RH  049%=      5-min Rain = 0
KST2 131609Z 19012KT 04/M06 A3012 RMK A01 T00401058  RH  049%=      5-min Rain = 0
KST2 131610Z 19011KT 04/M06 A3011 RMK A01 T00401057  RH  049%=      5-min Rain = 0
KST2 131611Z 19014KT 04/M06 A3011 RMK A01 T00411059  RH  048%=      5-min Rain = 0
KST2 131612Z 19013KT 04/M06 A3011 RMK A01 T00411060  RH  048%=      5-min Rain = 0
KST2 131613Z 20013KT 04/M06 A3011 RMK A01 T00411061  RH  048%=      5-min Rain = 0
KST2 131614Z 19015KT 04/M06 A3011 RMK A01 T00411061  RH  048%=      5-min Rain = 0
KST2 131615Z 19013KT 04/M06 A3011 RMK A01 T00411062  RH  047%=      5-min Rain = 0
KST2 131616Z 19013KT 04/M06 A3011 RMK A01 T00411061  RH  047%=      5-min Rain = 0
KST2 131617Z 19012KT 04/M06 A3011 RMK A01 T00421060  RH  047%=      5-min Rain = 0
KST2 131618Z 19010KT 04/M06 A3011 RMK A01 T00431058  RH  048%=      5-min Rain = 0
KST2 131619Z 19010KT 04/M06 A3012 RMK A01 T00441055  RH  049%=      5-min Rain = 0
KST2 131620Z 19013KT 04/M06 A3012 RMK A01 T00441056  RH  048%=      5-min Rain = 0
KST2 131621Z 19012KT 04/M06 A3012 RMK A01 T00441059  RH  047%=      5-min Rain = 0
KST2 131622Z 19012KT 05/M06 A3012 RMK A01 T00451058  RH  047%=      5-min Rain = 0
KST2 131623Z 19014KT 05/M06 A3012 RMK A01 T00451057  RH  047%=      5-min Rain = 0
KST2 131624Z 19011KT 05/M06 A3012 RMK A01 T00461058  RH  047%=      5-min Rain = 0
KST2 131625Z 19012KT 05/M06 A3011 RMK A01 T00461058  RH  047%=      5-min Rain = 0
KST2 131626Z 19014KT 05/M06 A3011 RMK A01 T00461058  RH  047%=      5-min Rain = 0
KST2 131627Z 19013KT 05/M06 A3012 RMK A01 T00461058  RH  047%=      5-min Rain = 0
KST2 131628Z 20015KT 05/M06 A3012 RMK A01 T00471058  RH  047%=      5-min Rain = 0
KST2 131629Z 19013KT 05/M06 A3012 RMK A01 T00471057  RH  047%=      5-min Rain = 0
KST2 131630Z 19012KT 05/M06 A3012 RMK A01 T00481059  RH  046%=      5-min Rain = 0
KST2 131631Z 19012KT 05/M06 A3012 RMK A01 T00481057  RH  047%=      5-min Rain = 0
KST2 131632Z 19010KT 05/M05 A3012 RMK A01 T00491054  RH  047%=      5-min Rain = 0
KST2 131633Z 19011KT 05/M05 A3012 RMK A01 T00491054  RH  047%=      5-min Rain = 0
KST2 131634Z 19012KT 05/M05 A3012 RMK A01 T00501054  RH  047%=      5-min Rain = 0
KST2 131635Z 19013KT 05/M05 A3012 RMK A01 T00511054  RH  047%=      5-min Rain = 0
KST2 131636Z 19014KT 05/M06 A3012 RMK A01 T00511056  RH  046%=      5-min Rain = 0
KST2 131637Z 19015KT 05/M06 A3012 RMK A01 T00511059  RH  045%=      5-min Rain = 0
KST2 131638Z 19012KT 05/M06 A3012 RMK A01 T00511057  RH  045%=      5-min Rain = 0
KST2 131639Z 19015KT 05/M06 A3012 RMK A01 T00511055  RH  046%=      5-min Rain = 0
KST2 131640Z 19015KT 05/M06 A3012 RMK A01 T00521057  RH  045%=      5-min Rain = 0
KST2 131641Z 19014KT 05/M06 A3012 RMK A01 T00521056  RH  046%=      5-min Rain = 0
KST2 131642Z 19014KT 05/M06 A3012 RMK A01 T00531057  RH  045%=      5-min Rain = 0
KST2 131643Z 19016KT 05/M06 A3012 RMK A01 T00531058  RH  045%=      5-min Rain = 0
KST2 131644Z 20016KT 05/M06 A3012 RMK A01 T00531058  RH  045%=      5-min Rain = 0
KST2 131645Z 19014KT 05/M06 A3012 RMK A01 T00531058  RH  045%=      5-min Rain = 0
KST2 131646Z 18014KT 05/M05 A3012 RMK A01 T00541054  RH  046%=      5-min Rain = 0
KST2 131647Z 20012KT 06/M05 A3012 RMK A01 T00551050  RH  047%=      5-min Rain = 0
KST2 131648Z 19013KT 06/M05 A3012 RMK A01 T00561050  RH  046%=      5-min Rain = 0
KST2 131649Z 19013KT 06/M05 A3012 RMK A01 T00571053  RH  045%=      5-min Rain = 0
KST2 131650Z 20012KT 06/M05 A3012 RMK A01 T00571050  RH  046%=      5-min Rain = 0
KST2 131651Z 19012KT 06/M05 A3012 RMK A01 T00581051  RH  045%=      5-min Rain = 0
KST2 131652Z 20012KT 06/M05 A3012 RMK A01 T00581052  RH  045%=      5-min Rain = 0
KST2 131653Z 19015KT 06/M05 A3012 RMK A01 T00581053  RH  045%=      5-min Rain = 0
KST2 131654Z 19014KT 06/M05 A3012 RMK A01 T00581054  RH  044%=      5-min Rain = 0
KST2 131655Z 19013KT 06/M05 A3012 RMK A01 T00581052  RH  045%=      5-min Rain = 0
KST2 131656Z 19015KT 06/M05 A3012 RMK A01 T00581052  RH  045%=      5-min Rain = 0
KST2 131657Z 19014KT 06/M06 A3011 RMK A01 T00581055  RH  044%=      5-min Rain = 0
KST2 131658Z 19014KT 06/M05 A3011 RMK A01 T00581054  RH  044%=      5-min Rain = 0
KST2 131659Z 20014KT 06/M06 A3011 RMK A01 T00571057  RH  044%=      5-min Rain = 0
KST2 131700Z 20014KT 06/M06 A3011 RMK A01 T00581056  RH  044%=      5-min Rain = 0
KST2 131701Z 20014KT 06/M06 A3011 RMK A01 T00581058  RH  043%=      5-min Rain = 0
KST2 131702Z 19012KT 06/M05 A3011 RMK A01 T00581053  RH  045%=      5-min Rain = 0
KST2 131703Z 19014KT 06/M06 A3011 RMK A01 T00591055  RH  044%=      5-min Rain = 0
KST2 131704Z 19013KT 06/M05 A3011 RMK A01 T00591053  RH  044%=      5-min Rain = 0
KST2 131705Z 19014KT 06/M05 A3011 RMK A01 T00601053  RH  044%=      5-min Rain = 0
KST2 131706Z 19013KT 06/M06 A3011 RMK A01 T00591056  RH  043%=      5-min Rain = 0
KST2 131707Z 19011KT 06/M05 A3011 RMK A01 T00591054  RH  044%=      5-min Rain = 0
KST2 131708Z 19011KT 06/M05 A3011 RMK A01 T00591052  RH  045%=      5-min Rain = 0
KST2 131709Z 19015KT 06/M05 A3011 RMK A01 T00591054  RH  044%=      5-min Rain = 0
KST2 131710Z 19015KT 06/M06 A3011 RMK A01 T00591055  RH  044%=      5-min Rain = 0
KST2 131711Z 19014KT 06/M06 A3011 RMK A01 T00591057  RH  043%=      5-min Rain = 0
KST2 131712Z 20013KT 06/M06 A3011 RMK A01 T00591057  RH  043%=      5-min Rain = 0
KST2 131713Z 20013KT 06/M05 A3011 RMK A01 T00591053  RH  044%=      5-min Rain = 0
KST2 131714Z 19012KT 06/M05 A301 RMK A01 T00601051  RH  045%=      5-min Rain = 0
KST2 131715Z 19013KT 06/M05 A301 RMK A01 T00601053  RH  044%=      5-min Rain = 0
KST2 131716Z 19015KT 06/M06 A301 RMK A01 T00601055  RH  043%=      5-min Rain = 0
KST2 131717Z 19013KT 06/M06 A301 RMK A01 T00611055  RH  043%=      5-min Rain = 0
KST2 131718Z 20013KT 06/M05 A301 RMK A01 T00611052  RH  044%=      5-min Rain = 0
KST2 131719Z 20013KT 06/M05 A301 RMK A01 T00621051  RH  044%=      5-min Rain = 0
KST2 131720Z 20016KT 06/M05 A301 RMK A01 T00621051  RH  044%=      5-min Rain = 0
KST2 131721Z 19015KT 06/M05 A301 RMK A01 T00621053  RH  043%=      5-min Rain = 0
KST2 131722Z 19015KT 06/M05 A301 RMK A01 T00631053  RH  043%=      5-min Rain = 0
KST2 131723Z 20014KT 06/M05 A301 RMK A01 T00631053  RH  043%=      5-min Rain = 0
KST2 131724Z 20012KT 07/M05 A301 RMK A01 T00651050  RH  044%=      5-min Rain = 0
KST2 131725Z 20010KT 07/M05 A301 RMK A01 T00661047  RH  044%=      5-min Rain = 0
KST2 131726Z 20012KT 07/M04 A301 RMK A01 T00691041  RH  046%=      5-min Rain = 0
KST2 131727Z 19013KT 07/M04 A301 RMK A01 T00701042  RH  045%=      5-min Rain = 0
KST2 131728Z 19013KT 07/M05 A301 RMK A01 T00701047  RH  043%=      5-min Rain = 0
KST2 131729Z 20014KT 07/M05 A301 RMK A01 T00691049  RH  043%=      5-min Rain = 0
KST2 131730Z 19014KT 07/M04 A301 RMK A01 T00691042  RH  045%=      5-min Rain = 0
KST2 131731Z 19015KT 07/M05 A301 RMK A01 T00701049  RH  043%=      5-min Rain = 0
KST2 131732Z 20012KT 07/M05 A301 RMK A01 T00681050  RH  042%=      5-min Rain = 0
KST2 131733Z 19014KT 07/M05 A3009 RMK A01 T00691047  RH  044%=      5-min Rain = 0
KST2 131734Z 20014KT 07/M05 A3009 RMK A01 T00691051  RH  042%=      5-min Rain = 0
KST2 131735Z 19014KT 07/M05 A301 RMK A01 T00691047  RH  043%=      5-min Rain = 0
KST2 131736Z 19014KT 07/M05 A301 RMK A01 T00701047  RH  043%=      5-min Rain = 0
KST2 131737Z 19015KT 07/M05 A301 RMK A01 T00701049  RH  042%=      5-min Rain = 0
KST2 131738Z 19016KT 07/M05 A3009 RMK A01 T00701049  RH  042%=      5-min Rain = 0
KST2 131739Z 20013KT 07/M05 A3009 RMK A01 T00701048  RH  043%=      5-min Rain = 0
KST2 131740Z 19011KT 07/M05 A3009 RMK A01 T00701046  RH  043%=      5-min Rain = 0
KST2 131741Z 19011KT 07/M05 A3009 RMK A01 T00701047  RH  043%=      5-min Rain = 0
KST2 131742Z 20011KT 07/M04 A301 RMK A01 T00701043  RH  044%=      5-min Rain = 0
KST2 131743Z 20013KT 07/M04 A301 RMK A01 T00721039  RH  045%=      5-min Rain = 0
KST2 131744Z 19014KT 07/M05 A3009 RMK A01 T00721045  RH  043%=      5-min Rain = 0
KST2 131745Z 19013KT 07/M05 A3009 RMK A01 T00721046  RH  043%=      5-min Rain = 0
KST2 131746Z 19012KT 07/M05 A3009 RMK A01 T00721049  RH  042%=      5-min Rain = 0
KST2 131747Z 19012KT 07/M04 A3009 RMK A01 T00721044  RH  043%=      5-min Rain = 0
KST2 131748Z 20013KT 07/M05 A3009 RMK A01 T00731045  RH  043%=      5-min Rain = 0
KST2 131749Z 19013KT 07/M04 A3009 RMK A01 T00731044  RH  043%=      5-min Rain = 0
KST2 131750Z 19013KT 07/M04 A3009 RMK A01 T00731042  RH  044%=      5-min Rain = 0
KST2 131751Z 18013KT 07/M04 A3009 RMK A01 T00741042  RH  044%=      5-min Rain = 0
KST2 131752Z 19012KT 07/M04 A3009 RMK A01 T00741041  RH  044%=      5-min Rain = 0
KST2 131753Z 18012KT 08/M04 A3009 RMK A01 T00751044  RH  043%=      5-min Rain = 0
KST2 131754Z 19010KT 08/M04 A3009 RMK A01 T00751043  RH  043%=      5-min Rain = 0
KST2 131755Z 20013KT 08/M04 A3009 RMK A01 T00751043  RH  043%=      5-min Rain = 0
KST2 131756Z 19012KT 08/M04 A3009 RMK A01 T00771040  RH  043%=      5-min Rain = 0
KST2 131757Z 19012KT 08/M04 A3009 RMK A01 T00781039  RH  043%=      5-min Rain = 0
KST2 131758Z 19013KT 08/M04 A3009 RMK A01 T00781042  RH  042%=      5-min Rain = 0
KST2 131759Z 18013KT 08/M04 A3008 RMK A01 T00781041  RH  043%=      5-min Rain = 0
KST2 131800Z 18012KT 08/M04 A3008 RMK A01 T00771036  RH  044%=      5-min Rain = 0
KST2 131801Z 18013KT 08/M04 A3008 RMK A01 T00781038  RH  044%=      5-min Rain = 0
KST2 131802Z 18011KT 08/M04 A3008 RMK A01 T00771040  RH  043%=      5-min Rain = 0
KST2 131803Z 18011KT 08/M04 A3008 RMK A01 T00781038  RH  044%=      5-min Rain = 0
KST2 131804Z 19010KT 08/M04 A3008 RMK A01 T00781038  RH  044%=      5-min Rain = 0
KST2 131805Z 19010KT 08/M04 A3008 RMK A01 T00791037  RH  043%=      5-min Rain = 0
KST2 131806Z 20010KT 08/M04 A3008 RMK A01 T00801039  RH  043%=      5-min Rain = 0
KST2 131807Z 20009KT 08/M04 A3008 RMK A01 T00811035  RH  044%=      5-min Rain = 0
KST2 131808Z 19011KT 08/M04 A3008 RMK A01 T00821038  RH  043%=      5-min Rain = 0
KST2 131809Z 18010KT 08/M04 A3008 RMK A01 T00821035  RH  043%=      5-min Rain = 0
KST2 131810Z 18011KT 08/M03 A3008 RMK A01 T00841031  RH  044%=      5-min Rain = 0
KST2 131811Z 17011KT 08/M03 A3007 RMK A01 T00841034  RH  043%=      5-min Rain = 0
KST2 131812Z 18010KT 08/M03 A3007 RMK A01 T00821030  RH  045%=      5-min Rain = 0
KST2 131813Z 18010KT 08/M04 A3007 RMK A01 T00811035  RH  044%=      5-min Rain = 0
KST2 131814Z 18012KT 08/M03 A3007 RMK A01 T00811034  RH  044%=      5-min Rain = 0
KST2 131815Z 18011KT 08/M03 A3007 RMK A01 T00811027  RH  046%=      5-min Rain = 0
KST2 131816Z 18012KT 08/M03 A3007 RMK A01 T00811032  RH  045%=      5-min Rain = 0
KST2 131817Z 18012KT 08/M03 A3006 RMK A01 T00801032  RH  045%=      5-min Rain = 0
KST2 131818Z 18013KT 08/M04 A3006 RMK A01 T00811035  RH  044%=      5-min Rain = 0
KST2 131819Z 18011KT 08/M04 A3006 RMK A01 T00811035  RH  044%=      5-min Rain = 0
KST2 131820Z 18011KT 08/M03 A3006 RMK A01 T00821031  RH  045%=      5-min Rain = 0
KST2 131821Z 18015KT 08/M03 A3006 RMK A01 T00821033  RH  044%=      5-min Rain = 0
KST2 131822Z 18014KT 08/M04 A3006 RMK A01 T00811037  RH  043%=      5-min Rain = 0
KST2 131823Z 18012KT 08/M04 A3006 RMK A01 T00801039  RH  043%=      5-min Rain = 0
KST2 131824Z 18013KT 08/M04 A3006 RMK A01 T00791035  RH  044%=      5-min Rain = 0
KST2 131825Z 20011KT 08/M04 A3006 RMK A01 T00801037  RH  043%=      5-min Rain = 0
KST2 131826Z 19009KT 08/M04 A3006 RMK A01 T00801035  RH  044%=      5-min Rain = 0
KST2 131827Z 19011KT 08/M03 A3006 RMK A01 T00821032  RH  044%=      5-min Rain = 0
KST2 131828Z 19010KT 08/M03 A3006 RMK A01 T00831032  RH  044%=      5-min Rain = 0
KST2 131829Z 19012KT 08/M03 A3006 RMK A01 T00841034  RH  043%=      5-min Rain = 0
KST2 131830Z 19013KT 08/M04 A3006 RMK A01 T00841036  RH  043%=      5-min Rain = 0
KST2 131831Z 19014KT 08/M04 A3006 RMK A01 T00841035  RH  043%=      5-min Rain = 0
KST2 131832Z 19011KT 09/M03 A3006 RMK A01 T00851029  RH  045%=      5-min Rain = 0
KST2 131833Z 19014KT 09/M03 A3006 RMK A01 T00871027  RH  044%=      5-min Rain = 0
KST2 131834Z 19012KT 09/M03 A3006 RMK A01 T00871033  RH  043%=      5-min Rain = 0
KST2 131835Z 19012KT 09/M03 A3006 RMK A01 T00871032  RH  043%=      5-min Rain = 0
KST2 131836Z 18012KT 09/M03 A3005 RMK A01 T00871031  RH  043%=      5-min Rain = 0
KST2 131837Z 18011KT 09/M03 A3005 RMK A01 T00871032  RH  043%=      5-min Rain = 0
KST2 131838Z 17011KT 09/M03 A3005 RMK A01 T00861029  RH  044%=      5-min Rain = 0
KST2 131839Z 18013KT 09/M02 A3005 RMK A01 T00861024  RH  046%=      5-min Rain = 0
KST2 131840Z 17011KT 09/M03 A3005 RMK A01 T00861025  RH  045%=      5-min Rain = 0
KST2 131841Z 17013KT 09/M03 A3005 RMK A01 T00861026  RH  045%=      5-min Rain = 0
KST2 131842Z 17012KT 09/M02 A3005 RMK A01 T00861024  RH  046%=      5-min Rain = 0
KST2 131843Z 17010KT 09/M03 A3005 RMK A01 T00861025  RH  046%=      5-min Rain = 0
KST2 131844Z 19012KT 09/M02 A3005 RMK A01 T00881015  RH  048%=      5-min Rain = 0
KST2 131845Z 17012KT 09/M02 A3005 RMK A01 T00911020  RH  046%=      5-min Rain = 0
KST2 131846Z 18013KT 09/M02 A3005 RMK A01 T00911023  RH  045%=      5-min Rain = 0
KST2 131847Z 18011KT 09/M03 A3005 RMK A01 T00901028  RH  043%=      5-min Rain = 0
KST2 131848Z 18010KT 09/M03 A3005 RMK A01 T00891027  RH  044%=      5-min Rain = 0
KST2 131849Z 19012KT 09/M02 A3004 RMK A01 T00911020  RH  046%=      5-min Rain = 0
KST2 131850Z 18012KT 09/M02 A3004 RMK A01 T00931024  RH  044%=      5-min Rain = 0
KST2 131851Z 19012KT 09/M02 A3004 RMK A01 T00941019  RH  045%=      5-min Rain = 0
KST2 131852Z 19009KT 09/M03 A3005 RMK A01 T00931026  RH  043%=      5-min Rain = 0
KST2 131853Z 18013KT 09/M03 A3004 RMK A01 T00931027  RH  043%=      5-min Rain = 0
KST2 131854Z 18013KT 09/M02 A3004 RMK A01 T00921023  RH  044%=      5-min Rain = 0
KST2 131855Z 19013KT 09/M03 A3004 RMK A01 T00921028  RH  043%=      5-min Rain = 0
KST2 131856Z 19013KT 09/M03 A3004 RMK A01 T00921031  RH  042%=      5-min Rain = 0
KST2 131857Z 19015KT 09/M03 A3004 RMK A01 T00921031  RH  042%=      5-min Rain = 0
KST2 131858Z 19015KT 09/M02 A3003 RMK A01 T00931024  RH  044%=      5-min Rain = 0
KST2 131859Z 19014KT 09/M03 A3003 RMK A01 T00941027  RH  043%=      5-min Rain = 0
KST2 131900Z 19015KT 09/M03 A3003 RMK A01 T00941028  RH  042%=      5-min Rain = 0
KST2 131901Z 19014KT 09/M03 A3003 RMK A01 T00941027  RH  042%=      5-min Rain = 0
KST2 131902Z 19016KT 09/M03 A3003 RMK A01 T00941030  RH  042%=      5-min Rain = 0
KST2 131903Z 19013KT 09/M03 A3003 RMK A01 T00941031  RH  041%=      5-min Rain = 0
KST2 131904Z 19013KT 09/M03 A3003 RMK A01 T00941030  RH  042%=      5-min Rain = 0
KST2 131905Z 19013KT 09/M03 A3003 RMK A01 T00941029  RH  042%=      5-min Rain = 0
KST2 131906Z 19014KT 10/M03 A3003 RMK A01 T00951027  RH  042%=      5-min Rain = 0
KST2 131907Z 19015KT 10/M03 A3003 RMK A01 T00971027  RH  042%=      5-min Rain = 0
KST2 131908Z 19013KT 10/M03 A3003 RMK A01 T00981028  RH  041%=      5-min Rain = 0
KST2 131909Z 19013KT 10/M03 A3003 RMK A01 T00981028  RH  041%=      5-min Rain = 0
KST2 131910Z 19012KT 10/M02 A3003 RMK A01 T00991021  RH  043%=      5-min Rain = 0
KST2 131911Z 19012KT 10/M02 A3003 RMK A01 T01011023  RH  042%=      5-min Rain = 0
KST2 131912Z 20013KT 10/M02 A3003 RMK A01 T01011021  RH  042%=      5-min Rain = 0
KST2 131913Z 20014KT 10/M02 A3002 RMK A01 T01031020  RH  042%=      5-min Rain = 0
KST2 131914Z 19013KT 10/M02 A3002 RMK A01 T01041018  RH  043%=      5-min Rain = 0
KST2 131915Z 20016KT 11/M02 A3002 RMK A01 T01051023  RH  041%=      5-min Rain = 0
KST2 131916Z 20015KT 10/M03 A3002 RMK A01 T01031027  RH  040%=      5-min Rain = 0
KST2 131917Z 20015KT 10/M03 A3002 RMK A01 T01021027  RH  040%=      5-min Rain = 0
KST2 131918Z 20015KT 10/M02 A3002 RMK A01 T01011024  RH  041%=      5-min Rain = 0
KST2 131919Z 20015KT 10/M02 A3002 RMK A01 T01031019  RH  042%=      5-min Rain = 0
KST2 131920Z 21017KT 10/M02 A3002 RMK A01 T01041022  RH  041%=      5-min Rain = 0
KST2 131921Z 20014KT 10/M02 A3002 RMK A01 T01031024  RH  041%=      5-min Rain = 0
KST2 131922Z 20013KT 10/M02 A3002 RMK A01 T01031021  RH  042%=      5-min Rain = 0
KST2 131923Z 21016KT 10/M02 A3002 RMK A01 T01031020  RH  042%=      5-min Rain = 0
KST2 131924Z 21016KT 10/M02 A3002 RMK A01 T01041023  RH  041%=      5-min Rain = 0
KST2 131925Z 21016KT 10/M02 A3002 RMK A01 T01041022  RH  041%=      5-min Rain = 0
KST2 131926Z 20015KT 10/M02 A3002 RMK A01 T01041023  RH  041%=      5-min Rain = 0
KST2 131927Z 20013KT 11/M02 A3002 RMK A01 T01051020  RH  042%=      5-min Rain = 0
KST2 131928Z 20013KT 11/M02 A3002 RMK A01 T01071015  RH  042%=      5-min Rain = 0
KST2 131929Z 19016KT 11/M02 A3001 RMK A01 T01091015  RH  042%=      5-min Rain = 0
KST2 131930Z 19016KT 11/M02 A3001 RMK A01 T01101018  RH  041%=      5-min Rain = 0
KST2 131931Z 20016KT 11/M02 A3001 RMK A01 T01091019  RH  041%=      5-min Rain = 0
KST2 131932Z 20015KT 11/M02 A3001 RMK A01 T01091017  RH  042%=      5-min Rain = 0
KST2 131933Z 21018KT 11/M02 A3001 RMK A01 T01101017  RH  041%=      5-min Rain = 0
KST2 131934Z 20016KT 11/M02 A3001 RMK A01 T01101018  RH  041%=      5-min Rain = 0
KST2 131935Z 19015KT 11/M02 A3001 RMK A01 T01091017  RH  041%=      5-min Rain = 0
KST2 131936Z 20016KT 11/M02 A3001 RMK A01 T01091016  RH  042%=      5-min Rain = 0
KST2 131937Z 21017KT 11/M02 A3001 RMK A01 T01101018  RH  041%=      5-min Rain = 0
KST2 131938Z 21015KT 11/M02 A3001 RMK A01 T01091019  RH  041%=      5-min Rain = 0
KST2 131939Z 21015KT 11/M02 A3001 RMK A01 T01081021  RH  041%=      5-min Rain = 0
KST2 131940Z 20016KT 11/M02 A3001 RMK A01 T01071019  RH  041%=      5-min Rain = 0
KST2 131941Z 19015KT 11/M02 A3001 RMK A01 T01071019  RH  041%=      5-min Rain = 0
KST2 131942Z 19015KT 11/M02 A3001 RMK A01 T01091018  RH  041%=      5-min Rain = 0
KST2 131943Z 19013KT 11/M02 A3001 RMK A01 T01101019  RH  041%=      5-min Rain = 0
KST2 131944Z 19012KT 11/M02 A3001 RMK A01 T01111016  RH  041%=      5-min Rain = 0
KST2 131945Z 19013KT 11/M02 A30 RMK A01 T01121015  RH  041%=      5-min Rain = 0
KST2 131946Z 19016KT 11/M01 A30 RMK A01 T01131013  RH  041%=      5-min Rain = 0
KST2 131947Z 20015KT 11/M02 A30 RMK A01 T01131015  RH  041%=      5-min Rain = 0
KST2 131948Z 20014KT 11/M02 A30 RMK A01 T01131016  RH  041%=      5-min Rain = 0
KST2 131949Z 20012KT 11/M01 A30 RMK A01 T01131014  RH  041%=      5-min Rain = 0
KST2 131950Z 20012KT 11/M01 A30 RMK A01 T01141013  RH  041%=      5-min Rain = 0
KST2 131951Z 20015G20KT 12/M01 A30 RMK A01 T01151011  RH  042%=      5-min Rain = 0
KST2 131952Z 19017KT 12/M02 A2999 RMK A01 T01161015  RH  040%=      5-min Rain = 0
KST2 131953Z 19017KT 12/M02 A30 RMK A01 T01161015  RH  040%=      5-min Rain = 0
KST2 131954Z 20016KT 12/M01 A2999 RMK A01 T01161013  RH  041%=      5-min Rain = 0
KST2 131955Z 20013KT 12/M01 A2999 RMK A01 T01171011  RH  041%=      5-min Rain = 0
KST2 131956Z 20013KT 12/M01 A2999 RMK A01 T01201005  RH  042%=      5-min Rain = 0
KST2 131957Z 19014KT 12/M01 A2999 RMK A01 T01211006  RH  041%=      5-min Rain = 0
KST2 131958Z 18014KT 12/M01 A2999 RMK A01 T01211010  RH  040%=      5-min Rain = 0
KST2 131959Z 18013KT 12/M01 A2999 RMK A01 T01201009  RH  041%=      5-min Rain = 0
KST2 132000Z 18016KT 12/M01 A2999 RMK A01 T01191011  RH  041%=      5-min Rain = 0
KST2 132001Z 20014KT 12/M01 A2999 RMK A01 T01181012  RH  041%=      5-min Rain = 0
KST2 132002Z 19013KT 12/M01 A2999 RMK A01 T01201008  RH  041%=      5-min Rain = 0
KST2 132003Z 19012G17KT 12/M01 A2999 RMK A01 T01211008  RH  041%=      5-min Rain = 0
KST2 132004Z 18013KT 12/M00 A2999 RMK A01 T01231001  RH  042%=      5-min Rain = 0
KST2 132005Z 19013KT 12/M00 A2998 RMK A01 T01231004  RH  042%=      5-min Rain = 0
KST2 132006Z 18013KT 12/M01 A2998 RMK A01 T01231007  RH  041%=      5-min Rain = 0
KST2 132007Z 18014KT 12/M01 A2998 RMK A01 T01231009  RH  040%=      5-min Rain = 0
KST2 132008Z 18014KT 12/M01 A2998 RMK A01 T01231007  RH  041%=      5-min Rain = 0
KST2 132009Z 18014KT 12/M01 A2998 RMK A01 T01221009  RH  040%=      5-min Rain = 0
KST2 132010Z 18015KT 12/M01 A2998 RMK A01 T01221011  RH  040%=      5-min Rain = 0
KST2 132011Z 18015KT 12/M01 A2998 RMK A01 T01221011  RH  040%=      5-min Rain = 0
KST2 132012Z 18019KT 12/M01 A2998 RMK A01 T01221007  RH  041%=      5-min Rain = 0
KST2 132013Z 19017KT 12/M01 A2998 RMK A01 T01221011  RH  040%=      5-min Rain = 0
KST2 132014Z 20017KT 12/M01 A2997 RMK A01 T01221011  RH  040%=      5-min Rain = 0
KST2 132015Z 18015KT 12/M01 A2997 RMK A01 T01231009  RH  040%=      5-min Rain = 0
KST2 132016Z 19013G18KT 12/M00 A2997 RMK A01 T01241004  RH  041%=      5-min Rain = 0
KST2 132017Z 18017KT 13/M01 A2997 RMK A01 T01251007  RH  040%=      5-min Rain = 0
KST2 132018Z 19014KT 12/M00 A2997 RMK A01 T01241004  RH  041%=      5-min Rain = 0
KST2 132019Z 20015KT 13/M01 A2997 RMK A01 T01251005  RH  041%=      5-min Rain = 0
KST2 132020Z 19017KT 13/M01 A2997 RMK A01 T01251009  RH  039%=      5-min Rain = 0
KST2 132021Z 20016KT 12/M01 A2997 RMK A01 T01241008  RH  040%=      5-min Rain = 0
KST2 132022Z 21014KT 13/M01 A2997 RMK A01 T01251009  RH  040%=      5-min Rain = 0
KST2 132023Z 20017KT 12/M01 A2997 RMK A01 T01241009  RH  040%=      5-min Rain = 0
KST2 132024Z 20015KT 12/M01 A2997 RMK A01 T01241012  RH  039%=      5-min Rain = 0
KST2 132025Z 20014KT 12/M01 A2997 RMK A01 T01231011  RH  039%=      5-min Rain = 0
KST2 132026Z 19016KT 12/M01 A2997 RMK A01 T01231010  RH  040%=      5-min Rain = 0
KST2 132027Z 19017G23KT 12/M01 A2997 RMK A01 T01241010  RH  040%=      5-min Rain = 0
KST2 132028Z 20017KT 12/M01 A2997 RMK A01 T01241012  RH  039%=      5-min Rain = 0
KST2 132029Z 19014KT 12/M01 A2997 RMK A01 T01241010  RH  040%=      5-min Rain = 0
KST2 132030Z 19015KT 13/M01 A2997 RMK A01 T01261006  RH  040%=      5-min Rain = 0
KST2 132031Z 19018G23KT 13/M01 A2996 RMK A01 T01271008  RH  039%=      5-min Rain = 0
KST2 132032Z 20021KT 13/M01 A2996 RMK A01 T01281008  RH  039%=      5-min Rain = 0
KST2 132033Z 20018KT 13/M01 A2996 RMK A01 T01281010  RH  039%=      5-min Rain = 0
KST2 132034Z 20018KT 13/M01 A2996 RMK A01 T01271009  RH  039%=      5-min Rain = 0
KST2 132035Z 19019KT 13/M01 A2996 RMK A01 T01271009  RH  039%=      5-min Rain = 0
KST2 132036Z 19016KT 13/M01 A2997 RMK A01 T01261011  RH  039%=      5-min Rain = 0
KST2 132037Z 18016KT 12/M01 A2996 RMK A01 T01241010  RH  039%=      5-min Rain = 0
KST2 132038Z 18014KT 12/M01 A2996 RMK A01 T01231009  RH  040%=      5-min Rain = 0
KST2 132039Z 19015KT 12/M01 A2996 RMK A01 T01241005  RH  041%=      5-min Rain = 0
KST2 132040Z 19016KT 12/M01 A2996 RMK A01 T01241006  RH  040%=      5-min Rain = 0
KST2 132041Z 19014KT 13/M01 A2996 RMK A01 T01251006  RH  041%=      5-min Rain = 0
KST2 132042Z 19014KT 13/M01 A2996 RMK A01 T01251006  RH  041%=      5-min Rain = 0
KST2 132043Z 20017KT 13/M01 A2996 RMK A01 T01251007  RH  040%=      5-min Rain = 0
KST2 132044Z 20016KT 12/M01 A2996 RMK A01 T01241008  RH  040%=      5-min Rain = 0
KST2 132045Z 19013KT 12/M01 A2997 RMK A01 T01231007  RH  040%=      5-min Rain = 0
KST2 132046Z 19014KT 12/M00 A2997 RMK A01 T01231003  RH  042%=      5-min Rain = 0
KST2 132047Z 19016KT 12/M01 A2996 RMK A01 T01231005  RH  041%=      5-min Rain = 0
KST2 132048Z 19014KT 12/M01 A2997 RMK A01 T01221008  RH  041%=      5-min Rain = 0
KST2 132049Z 18013KT 12/M01 A2997 RMK A01 T01211008  RH  041%=      5-min Rain = 0
KST2 132050Z 19014KT 12/M01 A2997 RMK A01 T01211006  RH  041%=      5-min Rain = 0
KST2 132051Z 19014KT 12/M01 A2997 RMK A01 T01211007  RH  041%=      5-min Rain = 0
KST2 132052Z 18015KT 12/M01 A2997 RMK A01 T01211005  RH  042%=      5-min Rain = 0
KST2 132053Z 19017KT 12/M01 A2997 RMK A01 T01211006  RH  041%=      5-min Rain = 0
KST2 132054Z 18016KT 12/M01 A2996 RMK A01 T01211007  RH  041%=      5-min Rain = 0
KST2 132055Z 19014KT 12/M01 A2997 RMK A01 T01201005  RH  042%=      5-min Rain = 0
KST2 132056Z 19012KT 12/M00 A2997 RMK A01 T01201002  RH  043%=      5-min Rain = 0
KST2 132057Z 19013KT 12/M01 A2996 RMK A01 T01211005  RH  042%=      5-min Rain = 0
KST2 132058Z 19015KT 12/M00 A2997 RMK A01 T01211004  RH  042%=      5-min Rain = 0
KST2 132059Z 20015KT 12/M00 A2996 RMK A01 T01211003  RH  042%=      5-min Rain = 0
KST2 132100Z 20013KT 12/M00 A2997 RMK A01 T01211003  RH  042%=      5-min Rain = 0
KST2 132101Z 20014KT 12/M00 A2996 RMK A01 T01211003  RH  042%=      5-min Rain = 0
KST2 132102Z 20015KT 12/M01 A2996 RMK A01 T01211005  RH  042%=      5-min Rain = 0
KST2 132103Z 19013KT 12/M01 A2997 RMK A01 T01211007  RH  041%=      5-min Rain = 0
KST2 132104Z 20013KT 12/M00 A2997 RMK A01 T01211003  RH  043%=      5-min Rain = 0
KST2 132105Z 20014KT 12/M01 A2997 RMK A01 T01211005  RH  042%=      5-min Rain = 0
KST2 132106Z 20014KT 12/M00 A2997 RMK A01 T01211002  RH  042%=      5-min Rain = 0
KST2 132107Z 20013KT 12/M00 A2997 RMK A01 T01221003  RH  042%=      5-min Rain = 0
KST2 132108Z 21013KT 12/M00 A2996 RMK A01 T01221001  RH  043%=      5-min Rain = 0
KST2 132109Z 20010KT 12/00 A2997 RMK A01 T01210000  RH  043%=      5-min Rain = 0
KST2 132110Z 20012KT 12/00 A2997 RMK A01 T01220001  RH  043%=      5-min Rain = 0
KST2 132111Z 19011KT 12/M00 A2997 RMK A01 T01221001  RH  043%=      5-min Rain = 0
KST2 132112Z 20012KT 12/00 A2997 RMK A01 T012200-0  RH  043%=      5-min Rain = 0
KST2 132113Z 20011KT 12/00 A2997 RMK A01 T01230001  RH  043%=      5-min Rain = 0
KST2 132114Z 20015KT 12/00 A2997 RMK A01 T01230001  RH  043%=      5-min Rain = 0
KST2 132115Z 20014KT 12/M00 A2996 RMK A01 T01231001  RH  042%=      5-min Rain = 0
KST2 132116Z 20014KT 12/00 A2996 RMK A01 T012300-0  RH  043%=      5-min Rain = 0
KST2 132117Z 19014KT 12/00 A2996 RMK A01 T012300-0  RH  043%=      5-min Rain = 0
KST2 132118Z 19015KT 12/M00 A2996 RMK A01 T01231002  RH  042%=      5-min Rain = 0
KST2 132119Z 19017KT 12/M00 A2996 RMK A01 T01241003  RH  042%=      5-min Rain = 0
KST2 132120Z 19016KT 12/M00 A2996 RMK A01 T01241003  RH  041%=      5-min Rain = 0
KST2 132121Z 18017KT 12/M00 A2996 RMK A01 T01241002  RH  042%=      5-min Rain = 0
KST2 132122Z 18016KT 12/M00 A2996 RMK A01 T01241002  RH  042%=      5-min Rain = 0
KST2 132123Z 19015KT 13/00 A2996 RMK A01 T01250001  RH  043%=      5-min Rain = 0
KST2 132124Z 18016KT 13/M00 A2996 RMK A01 T01251001  RH  042%=      5-min Rain = 0
KST2 132125Z 19016KT 13/00 A2996 RMK A01 T01250001  RH  042%=      5-min Rain = 0
KST2 132126Z 19015KT 13/00 A2996 RMK A01 T01250001  RH  043%=      5-min Rain = 0
KST2 132127Z 18015KT 12/00 A2996 RMK A01 T01240002  RH  043%=      5-min Rain = 0
KST2 132128Z 18016KT 12/01 A2995 RMK A01 T01240005  RH  044%=      5-min Rain = 0
KST2 132129Z 18018KT 12/01 A2995 RMK A01 T01240006  RH  045%=      5-min Rain = 0
KST2 132130Z 18016KT 12/00 A2995 RMK A01 T01230001  RH  043%=      5-min Rain = 0
KST2 132131Z 18017KT 12/00 A2995 RMK A01 T012200-0  RH  043%=      5-min Rain = 0
KST2 132132Z 18014KT 12/00 A2996 RMK A01 T01210000  RH  043%=      5-min Rain = 0
KST2 132133Z 19015KT 12/00 A2996 RMK A01 T01210003  RH  044%=      5-min Rain = 0
KST2 132134Z 19015KT 12/00 A2996 RMK A01 T01210002  RH  044%=      5-min Rain = 0
KST2 132135Z 20012KT 12/00 A2996 RMK A01 T01200002  RH  044%=      5-min Rain = 0
KST2 132136Z 19015KT 12/00 A2996 RMK A01 T01200003  RH  044%=      5-min Rain = 0
KST2 132137Z 19014KT 12/00 A2996 RMK A01 T01200002  RH  044%=      5-min Rain = 0
KST2 132138Z 19015KT 12/00 A2996 RMK A01 T01190001  RH  044%=      5-min Rain = 0
KST2 132139Z 18015KT 12/00 A2996 RMK A01 T01180002  RH  045%=      5-min Rain = 0
KST2 132140Z 19016KT 12/00 A2996 RMK A01 T01180001  RH  045%=      5-min Rain = 0
KST2 132141Z 19015KT 12/00 A2996 RMK A01 T01180000  RH  044%=      5-min Rain = 0
KST2 132142Z 19016KT 12/00 A2996 RMK A01 T01180000  RH  044%=      5-min Rain = 0
KST2 132143Z 19016KT 12/00 A2996 RMK A01 T01180002  RH  045%=      5-min Rain = 0
KST2 132144Z 19015KT 12/00 A2996 RMK A01 T01180002  RH  045%=      5-min Rain = 0
KST2 132145Z 18016KT 12/00 A2996 RMK A01 T01170002  RH  045%=      5-min Rain = 0
KST2 132146Z 19016KT 12/00 A2996 RMK A01 T01160001  RH  045%=      5-min Rain = 0
KST2 132147Z 18016KT 12/00 A2996 RMK A01 T01160001  RH  045%=      5-min Rain = 0
KST2 132148Z 18016KT 12/00 A2996 RMK A01 T01160003  RH  046%=      5-min Rain = 0
KST2 132149Z 18015KT 12/00 A2996 RMK A01 T01150004  RH  046%=      5-min Rain = 0
KST2 132150Z 18016KT 12/00 A2996 RMK A01 T01150002  RH  046%=      5-min Rain = 0
KST2 132151Z 18013KT 11/00 A2996 RMK A01 T01140004  RH  047%=      5-min Rain = 0
KST2 132152Z 18013KT 11/00 A2996 RMK A01 T01140003  RH  047%=      5-min Rain = 0
KST2 132153Z 18012KT 11/01 A2996 RMK A01 T01140005  RH  047%=      5-min Rain = 0
KST2 132154Z 18013KT 11/01 A2996 RMK A01 T01140008  RH  048%=      5-min Rain = 0
KST2 132155Z 18016KT 11/01 A2996 RMK A01 T01130007  RH  048%=      5-min Rain = 0
KST2 132156Z 18016KT 11/01 A2996 RMK A01 T01130005  RH  047%=      5-min Rain = 0
KST2 132157Z 18014G19KT 11/01 A2996 RMK A01 T01130006  RH  048%=      5-min Rain = 0
KST2 132158Z 18014KT 11/01 A2996 RMK A01 T01130007  RH  048%=      5-min Rain = 0
KST2 132159Z 18013KT 11/01 A2996 RMK A01 T01130009  RH  049%=      5-min Rain = 0
KST2 132200Z 18014KT 11/01 A2996 RMK A01 T01130008  RH  049%=      5-min Rain = 0
KST2 132201Z 18015KT 11/01 A2996 RMK A01 T01130005  RH  048%=      5-min Rain = 0
KST2 132202Z 18013KT 11/01 A2996 RMK A01 T01130007  RH  048%=      5-min Rain = 0
KST2 132203Z 19012KT 11/01 A2996 RMK A01 T01130007  RH  048%=      5-min Rain = 0
KST2 132204Z 19015KT 11/01 A2996 RMK A01 T01130007  RH  048%=      5-min Rain = 0
KST2 132205Z 19015KT 11/01 A2996 RMK A01 T01130005  RH  047%=      5-min Rain = 0
KST2 132206Z 19015KT 11/01 A2996 RMK A01 T01140005  RH  047%=      5-min Rain = 0
KST2 132207Z 19014KT 11/00 A2996 RMK A01 T01140004  RH  047%=      5-min Rain = 0
KST2 132208Z 19014KT 11/01 A2996 RMK A01 T01140005  RH  047%=      5-min Rain = 0
KST2 132209Z 18015KT 11/01 A2996 RMK A01 T01140006  RH  047%=      5-min Rain = 0
KST2 132210Z 18015KT 11/01 A2996 RMK A01 T01140006  RH  047%=      5-min Rain = 0
KST2 132211Z 19014KT 11/01 A2996 RMK A01 T01140006  RH  047%=      5-min Rain = 0
KST2 132212Z 18014KT 11/01 A2996 RMK A01 T01140007  RH  048%=      5-min Rain = 0
KST2 132213Z 19014KT 11/01 A2996 RMK A01 T01140008  RH  048%=      5-min Rain = 0
KST2 132214Z 19015KT 12/01 A2996 RMK A01 T01150008  RH  048%=      5-min Rain = 0
KST2 132215Z 20015KT 12/01 A2996 RMK A01 T01150008  RH  048%=      5-min Rain = 0
KST2 132216Z 20015KT 12/01 A2996 RMK A01 T01160008  RH  048%=      5-min Rain = 0
KST2 132217Z 20013KT 12/01 A2996 RMK A01 T01160008  RH  048%=      5-min Rain = 0
KST2 132218Z 20014KT 12/01 A2997 RMK A01 T01160009  RH  048%=      5-min Rain = 0
KST2 132219Z 19014KT 12/01 A2997 RMK A01 T01170010  RH  048%=      5-min Rain = 0
KST2 132220Z 20013KT 12/01 A2997 RMK A01 T01160009  RH  048%=      5-min Rain = 0
KST2 132221Z 20011KT 12/01 A2997 RMK A01 T01160012  RH  049%=      5-min Rain = 0
KST2 132222Z 20009KT 12/01 A2997 RMK A01 T01160014  RH  050%=      5-min Rain = 0
KST2 132223Z 19012KT 12/01 A2997 RMK A01 T01150014  RH  050%=      5-min Rain = 0
KST2 132224Z 20013KT 12/01 A2997 RMK A01 T01150012  RH  049%=      5-min Rain = 0
KST2 132225Z 19013KT 11/01 A2997 RMK A01 T01140012  RH  049%=      5-min Rain = 0
KST2 132226Z 19013KT 11/01 A2997 RMK A01 T01140011  RH  049%=      5-min Rain = 0
KST2 132227Z 19011KT 11/01 A2997 RMK A01 T01140012  RH  050%=      5-min Rain = 0
KST2 132228Z 19012KT 11/01 A2997 RMK A01 T01130014  RH  050%=      5-min Rain = 0
KST2 132229Z 19013KT 11/01 A2997 RMK A01 T01130012  RH  050%=      5-min Rain = 0
KST2 132230Z 19013KT 11/01 A2996 RMK A01 T01120011  RH  050%=      5-min Rain = 0
KST2 132231Z 19012KT 11/01 A2996 RMK A01 T01120014  RH  051%=      5-min Rain = 0
KST2 132232Z 19015KT 11/01 A2996 RMK A01 T01120012  RH  050%=      5-min Rain = 0
KST2 132233Z 18016KT 11/01 A2996 RMK A01 T01110010  RH  050%=      5-min Rain = 0
KST2 132234Z 19013KT 11/01 A2996 RMK A01 T01110012  RH  051%=      5-min Rain = 0
KST2 132235Z 18013KT 11/01 A2996 RMK A01 T01100013  RH  051%=      5-min Rain = 0
KST2 132236Z 18014KT 11/01 A2996 RMK A01 T01100013  RH  051%=      5-min Rain = 0
KST2 132237Z 18013KT 11/01 A2996 RMK A01 T01100012  RH  051%=      5-min Rain = 0
KST2 132238Z 18013KT 11/01 A2996 RMK A01 T01090012  RH  051%=      5-min Rain = 0
KST2 132239Z 18012KT 11/01 A2996 RMK A01 T01090013  RH  052%=      5-min Rain = 0
KST2 132240Z 18010KT 11/02 A2996 RMK A01 T01090016  RH  052%=      5-min Rain = 0
KST2 132241Z 18010G15KT 11/02 A2997 RMK A01 T01090017  RH  053%=      5-min Rain = 0
KST2 132242Z 18012KT 11/01 A2997 RMK A01 T01080014  RH  052%=      5-min Rain = 0
KST2 132243Z 18013KT 11/02 A2997 RMK A01 T01080015  RH  053%=      5-min Rain = 0
KST2 132244Z 18013KT 11/01 A2996 RMK A01 T01070013  RH  052%=      5-min Rain = 0
KST2 132245Z 18012KT 11/01 A2996 RMK A01 T01070013  RH  052%=      5-min Rain = 0
KST2 132246Z 18012KT 11/01 A2996 RMK A01 T01070014  RH  053%=      5-min Rain = 0
KST2 132247Z 18014KT 11/01 A2996 RMK A01 T01060014  RH  053%=      5-min Rain = 0
KST2 132248Z 18012KT 11/02 A2996 RMK A01 T01060015  RH  053%=      5-min Rain = 0
KST2 132249Z 18012KT 11/02 A2996 RMK A01 T01060016  RH  054%=      5-min Rain = 0
KST2 132250Z 18011KT 11/02 A2996 RMK A01 T01060016  RH  054%=      5-min Rain = 0
KST2 132251Z 19012KT 11/02 A2996 RMK A01 T01060015  RH  053%=      5-min Rain = 0
KST2 132252Z 19011KT 11/02 A2996 RMK A01 T01050015  RH  053%=      5-min Rain = 0
KST2 132253Z 19015KT 11/02 A2996 RMK A01 T01050015  RH  053%=      5-min Rain = 0
KST2 132254Z 19013KT 11/01 A2996 RMK A01 T01050013  RH  053%=      5-min Rain = 0
KST2 132255Z 19012KT 11/01 A2996 RMK A01 T01050014  RH  053%=      5-min Rain = 0
KST2 132256Z 18013KT 11/02 A2996 RMK A01 T01050016  RH  054%=      5-min Rain = 0
KST2 132257Z 18013KT 10/02 A2996 RMK A01 T01040015  RH  054%=      5-min Rain = 0
KST2 132258Z 18012KT 10/02 A2996 RMK A01 T01040016  RH  054%=      5-min Rain = 0
KST2 132259Z 18012KT 10/02 A2996 RMK A01 T01040016  RH  054%=      5-min Rain = 0
KST2 132300Z 18012KT 10/02 A2996 RMK A01 T01040016  RH  055%=      5-min Rain = 0
KST2 132301Z 18011KT 10/02 A2996 RMK A01 T01030018  RH  055%=      5-min Rain = 0
KST2 132302Z 18010KT 10/02 A2997 RMK A01 T01030018  RH  056%=      5-min Rain = 0
KST2 132303Z 17010KT 10/02 A2997 RMK A01 T01020019  RH  056%=      5-min Rain = 0
KST2 132304Z 18010KT 10/02 A2997 RMK A01 T01010019  RH  057%=      5-min Rain = 0
KST2 132305Z 18010KT 10/02 A2997 RMK A01 T01010019  RH  057%=      5-min Rain = 0
KST2 132306Z 18009KT 10/02 A2997 RMK A01 T01000019  RH  057%=      5-min Rain = 0
KST2 132307Z 18011KT 10/02 A2997 RMK A01 T01000019  RH  057%=      5-min Rain = 0
KST2 132308Z 18012KT 10/02 A2997 RMK A01 T01000017  RH  056%=      5-min Rain = 0
KST2 132309Z 18011KT 10/02 A2996 RMK A01 T01000017  RH  056%=      5-min Rain = 0
KST2 132310Z 18012KT 10/02 A2996 RMK A01 T01000018  RH  057%=      5-min Rain = 0
KST2 132311Z 17012KT 10/02 A2996 RMK A01 T00990017  RH  057%=      5-min Rain = 0
KST2 132312Z 17013KT 10/02 A2996 RMK A01 T00990018  RH  057%=      5-min Rain = 0
KST2 132313Z 17014KT 10/02 A2996 RMK A01 T00990018  RH  057%=      5-min Rain = 0
KST2 132314Z 18014KT 10/02 A2996 RMK A01 T00980016  RH  057%=      5-min Rain = 0
KST2 132315Z 17013KT 10/02 A2996 RMK A01 T00980016  RH  057%=      5-min Rain = 0
KST2 132316Z 17013KT 10/02 A2996 RMK A01 T00980017  RH  057%=      5-min Rain = 0
KST2 132317Z 17014KT 10/02 A2996 RMK A01 T00980017  RH  057%=      5-min Rain = 0
KST2 132318Z 18014KT 10/02 A2996 RMK A01 T00980017  RH  057%=      5-min Rain = 0
KST2 132319Z 18013KT 10/02 A2996 RMK A01 T00970017  RH  057%=      5-min Rain = 0
KST2 132320Z 18013KT 10/02 A2996 RMK A01 T00970017  RH  057%=      5-min Rain = 0
KST2 132321Z 18012KT 10/02 A2996 RMK A01 T00970018  RH  058%=      5-min Rain = 0
KST2 132322Z 18013KT 10/02 A2996 RMK A01 T00970018  RH  058%=      5-min Rain = 0
KST2 132323Z 18012KT 10/02 A2996 RMK A01 T00960016  RH  057%=      5-min Rain = 0
KST2 132324Z 18012KT 10/02 A2997 RMK A01 T00960016  RH  057%=      5-min Rain = 0
KST2 132325Z 18011KT 10/02 A2997 RMK A01 T00960017  RH  058%=      5-min Rain = 0
KST2 132326Z 18011KT 10/02 A2997 RMK A01 T00960017  RH  058%=      5-min Rain = 0
KST2 132327Z 18011KT 10/02 A2997 RMK A01 T00960016  RH  057%=      5-min Rain = 0
KST2 132328Z 18010KT 10/02 A2997 RMK A01 T00960017  RH  058%=      5-min Rain = 0
KST2 132329Z 18010KT 10/02 A2997 RMK A01 T00960018  RH  058%=      5-min Rain = 0
KST2 132330Z 18010KT 10/02 A2997 RMK A01 T00950019  RH  059%=      5-min Rain = 0
KST2 132331Z 18009KT 10/02 A2997 RMK A01 T00950019  RH  059%=      5-min Rain = 0
KST2 132332Z 17009KT 09/02 A2997 RMK A01 T00940018  RH  059%=      5-min Rain = 0
KST2 132333Z 17009KT 09/02 A2998 RMK A01 T00940018  RH  059%=      5-min Rain = 0
KST2 132334Z 17008KT 09/02 A2998 RMK A01 T00940019  RH  059%=      5-min Rain = 0
KST2 132335Z 18008KT 09/02 A2998 RMK A01 T00930019  RH  060%=      5-min Rain = 0
KST2 132336Z 17007KT 09/02 A2998 RMK A01 T00930019  RH  060%=      5-min Rain = 0
KST2 132337Z 17008KT 09/02 A2998 RMK A01 T00920019  RH  060%=      5-min Rain = 0
KST2 132338Z 17007KT 09/02 A2998 RMK A01 T00920019  RH  060%=      5-min Rain = 0
KST2 132339Z 17008KT 09/02 A2998 RMK A01 T00920019  RH  060%=      5-min Rain = 0
KST2 132340Z 17008KT 09/02 A2998 RMK A01 T00920018  RH  060%=      5-min Rain = 0
KST2 132341Z 18007KT 09/02 A2998 RMK A01 T00910018  RH  060%=      5-min Rain = 0
KST2 132342Z 17007KT 09/02 A2998 RMK A01 T00920019  RH  060%=      5-min Rain = 0
KST2 132343Z 17007KT 09/02 A2999 RMK A01 T00910018  RH  060%=      5-min Rain = 0
KST2 132344Z 17008KT 09/02 A2999 RMK A01 T00910019  RH  061%=      5-min Rain = 0
KST2 132345Z 18008KT 09/02 A2999 RMK A01 T00910017  RH  060%=      5-min Rain = 0
KST2 132346Z 18008KT 09/02 A2999 RMK A01 T00900017  RH  060%=      5-min Rain = 0
KST2 132347Z 18008KT 09/02 A2999 RMK A01 T00900018  RH  060%=      5-min Rain = 0
KST2 132348Z 17008KT 09/02 A2999 RMK A01 T00900017  RH  060%=      5-min Rain = 0
KST2 132349Z 18008KT 09/02 A2999 RMK A01 T00900017  RH  060%=      5-min Rain = 0
KST2 132350Z 18009KT 09/02 A2999 RMK A01 T00900017  RH  060%=      5-min Rain = 0
KST2 132351Z 18008KT 09/02 A2999 RMK A01 T00900017  RH  060%=      5-min Rain = 0
KST2 132352Z 18008KT 09/02 A2999 RMK A01 T00900017  RH  060%=      5-min Rain = 0
KST2 132353Z 18008KT 09/02 A2999 RMK A01 T00890017  RH  060%=      5-min Rain = 0
KST2 132354Z 18008KT 09/02 A2999 RMK A01 T00890016  RH  060%=      5-min Rain = 0
KST2 132355Z 18007KT 09/02 A2999 RMK A01 T00890017  RH  061%=      5-min Rain = 0
KST2 132356Z 18008KT 09/02 A2999 RMK A01 T00880017  RH  061%=      5-min Rain = 0
KST2 132357Z 18008KT 09/02 A2999 RMK A01 T00870018  RH  061%=      5-min Rain = 0
KST2 132358Z 18008KT 09/02 A2999 RMK A01 T00870018  RH  062%=      5-min Rain = 0
KST2 132359Z 18008KT 09/02 A2999 RMK A01 T00860018  RH  062%=      5-min Rain = 0
KST2 140000Z 18008KT 09/02 A2999 RMK A01 T00860018  RH  063%=      5-min Rain = 0
KST2 140001Z 18008KT 09/02 A2999 RMK A01 T00850018  RH  063%=      5-min Rain = 0
KST2 140002Z 17008KT 08/02 A2999 RMK A01 T00840019  RH  063%=      5-min Rain = 0
KST2 140003Z 17008KT 08/02 A2999 RMK A01 T00840019  RH  063%=      5-min Rain = 0
KST2 140004Z 17008KT 08/02 A2999 RMK A01 T00840019  RH  064%=      5-min Rain = 0
KST2 140005Z 17008KT 08/02 A2999 RMK A01 T00830019  RH  064%=      5-min Rain = 0
KST2 140006Z 17009KT 08/02 A2999 RMK A01 T00830019  RH  064%=      5-min Rain = 0
KST2 140007Z 18008KT 08/02 A2999 RMK A01 T00830018  RH  064%=      5-min Rain = 0
KST2 140008Z 18009KT 08/02 A2999 RMK A01 T00830018  RH  064%=      5-min Rain = 0
KST2 140009Z 18010KT 08/02 A2999 RMK A01 T00820017  RH  064%=      5-min Rain = 0
KST2 140010Z 18009KT 08/02 A2999 RMK A01 T00820016  RH  063%=      5-min Rain = 0
KST2 140011Z 18010KT 08/02 A2999 RMK A01 T00830016  RH  063%=      5-min Rain = 0
KST2 140012Z 18010KT 08/02 A2999 RMK A01 T00830016  RH  063%=      5-min Rain = 0
KST2 140013Z 18010KT 08/02 A2999 RMK A01 T00840017  RH  063%=      5-min Rain = 0
KST2 140014Z 18010KT 08/02 A2999 RMK A01 T00830017  RH  063%=      5-min Rain = 0
KST2 140015Z 18011KT 08/02 A2998 RMK A01 T00830017  RH  063%=      5-min Rain = 0
KST2 140016Z 18011KT 08/02 A2998 RMK A01 T00820017  RH  064%=      5-min Rain = 0
KST2 140017Z 18010KT 08/02 A2998 RMK A01 T00820018  RH  064%=      5-min Rain = 0
KST2 140018Z 17010KT 08/02 A2998 RMK A01 T00810018  RH  064%=      5-min Rain = 0
KST2 140019Z 18010KT 08/02 A2998 RMK A01 T00800018  RH  065%=      5-min Rain = 0
KST2 140020Z 17009KT 08/02 A2999 RMK A01 T00800018  RH  065%=      5-min Rain = 0
KST2 140021Z 17009KT 08/02 A2999 RMK A01 T00800018  RH  065%=      5-min Rain = 0
KST2 140022Z 17008KT 08/02 A2999 RMK A01 T00790017  RH  065%=      5-min Rain = 0
KST2 140023Z 16008KT 08/02 A2999 RMK A01 T00790018  RH  065%=      5-min Rain = 0
KST2 140024Z 16008KT 08/02 A2999 RMK A01 T00790018  RH  065%=      5-min Rain = 0
KST2 140025Z 16008KT 08/02 A2999 RMK A01 T00790018  RH  065%=      5-min Rain = 0
KST2 140026Z 16008KT 08/02 A2999 RMK A01 T00780018  RH  066%=      5-min Rain = 0
KST2 140027Z 16009KT 08/02 A2999 RMK A01 T00780017  RH  066%=      5-min Rain = 0
KST2 140028Z 16009KT 08/02 A2999 RMK A01 T00780018  RH  066%=      5-min Rain = 0
KST2 140029Z 16009KT 08/02 A2999 RMK A01 T00770018  RH  066%=      5-min Rain = 0
KST2 140030Z 16009KT 08/02 A2999 RMK A01 T00770018  RH  066%=      5-min Rain = 0
KST2 140031Z 16009KT 08/02 A2999 RMK A01 T00770018  RH  066%=      5-min Rain = 0
KST2 140032Z 16008KT 08/02 A2999 RMK A01 T00770018  RH  066%=      5-min Rain = 0
KST2 140033Z 17009KT 08/02 A2999 RMK A01 T00760018  RH  066%=      5-min Rain = 0
KST2 140034Z 17009KT 08/02 A2999 RMK A01 T00760017  RH  066%=      5-min Rain = 0
KST2 140035Z 17010KT 08/02 A2999 RMK A01 T00760018  RH  067%=      5-min Rain = 0
KST2 140036Z 17010KT 08/02 A2998 RMK A01 T00760018  RH  067%=      5-min Rain = 0
KST2 140037Z 17010KT 08/02 A2998 RMK A01 T00760018  RH  067%=      5-min Rain = 0
KST2 140038Z 17011KT 08/02 A2998 RMK A01 T00760018  RH  067%=      5-min Rain = 0
KST2 140039Z 18011KT 08/02 A2998 RMK A01 T00760018  RH  067%=      5-min Rain = 0
KST2 140040Z 18011KT 08/02 A2998 RMK A01 T00760019  RH  067%=      5-min Rain = 0
KST2 140041Z 17011KT 08/02 A2998 RMK A01 T00760019  RH  067%=      5-min Rain = 0
KST2 140042Z 18010KT 08/02 A2998 RMK A01 T00760019  RH  067%=      5-min Rain = 0
KST2 140043Z 17010KT 08/02 A2999 RMK A01 T00760019  RH  067%=      5-min Rain = 0
KST2 140044Z 17010KT 08/02 A2999 RMK A01 T00760019  RH  067%=      5-min Rain = 0
KST2 140045Z 17009KT 08/02 A2999 RMK A01 T00770019  RH  067%=      5-min Rain = 0
KST2 140046Z 17009KT 08/02 A2999 RMK A01 T00770019  RH  067%=      5-min Rain = 0
KST2 140047Z 17008KT 08/02 A2999 RMK A01 T00770019  RH  067%=      5-min Rain = 0
KST2 140048Z 17008KT 08/02 A2999 RMK A01 T00770020  RH  067%=      5-min Rain = 0
KST2 140049Z 16008KT 08/02 A2999 RMK A01 T00770020  RH  067%=      5-min Rain = 0
KST2 140050Z 17007KT 08/02 A2999 RMK A01 T00760020  RH  068%=      5-min Rain = 0
KST2 140051Z 16007KT 08/02 A2999 RMK A01 T00760020  RH  068%=      5-min Rain = 0
KST2 140052Z 16006KT 08/02 A30 RMK A01 T00750020  RH  068%=      5-min Rain = 0
KST2 140053Z 17006KT 08/02 A30 RMK A01 T00750020  RH  068%=      5-min Rain = 0
KST2 140054Z 17007KT 08/02 A30 RMK A01 T00750020  RH  068%=      5-min Rain = 0
KST2 140055Z 17006KT 08/02 A30 RMK A01 T00750019  RH  068%=      5-min Rain = 0
KST2 140056Z 17007KT 08/02 A30 RMK A01 T00750020  RH  068%=      5-min Rain = 0
KST2 140057Z 17006KT 08/02 A30 RMK A01 T00750020  RH  068%=      5-min Rain = 0
KST2 140058Z 18007KT 08/02 A30 RMK A01 T00750020  RH  068%=      5-min Rain = 0
KST2 140059Z 18006KT 08/02 A3001 RMK A01 T00760020  RH  068%=      5-min Rain = 0
KST2 140100Z 18006KT 08/02 A3001 RMK A01 T00760020  RH  068%=      5-min Rain = 0
KST2 140101Z 18007KT 08/02 A3001 RMK A01 T00760021  RH  068%=      5-min Rain = 0
KST2 140102Z 18007KT 08/02 A3001 RMK A01 T00760021  RH  068%=      5-min Rain = 0
KST2 140103Z 18007KT 08/02 A3001 RMK A01 T00760021  RH  068%=      5-min Rain = 0
KST2 140104Z 18008KT 08/02 A3001 RMK A01 T00760021  RH  068%=      5-min Rain = 0
KST2 140105Z 18008KT 08/02 A3001 RMK A01 T00770021  RH  067%=      5-min Rain = 0
KST2 140106Z 18008KT 08/02 A3001 RMK A01 T00770021  RH  067%=      5-min Rain = 0
KST2 140107Z 18008KT 08/02 A3001 RMK A01 T00780022  RH  068%=      5-min Rain = 0
KST2 140108Z 18008KT 08/02 A3001 RMK A01 T00770023  RH  068%=      5-min Rain = 0
KST2 140109Z 17008KT 08/02 A3001 RMK A01 T00760022  RH  069%=      5-min Rain = 0
KST2 140110Z 17008KT 08/02 A3001 RMK A01 T00760022  RH  069%=      5-min Rain = 0
KST2 140111Z 18008KT 08/02 A3001 RMK A01 T00750022  RH  069%=      5-min Rain = 0
KST2 140112Z 17008KT 08/02 A3001 RMK A01 T00750022  RH  069%=      5-min Rain = 0
KST2 140113Z 17007KT 08/02 A3001 RMK A01 T00750022  RH  069%=      5-min Rain = 0
KST2 140114Z 17007KT 08/02 A3001 RMK A01 T00750023  RH  069%=      5-min Rain = 0
KST2 140115Z 17006KT 07/02 A3001 RMK A01 T00740023  RH  070%=      5-min Rain = 0
KST2 140116Z 17006KT 07/02 A3002 RMK A01 T00740023  RH  070%=      5-min Rain = 0
KST2 140117Z 16005KT 07/02 A3002 RMK A01 T00730023  RH  070%=      5-min Rain = 0
KST2 140118Z 17005KT 07/02 A3002 RMK A01 T00720022  RH  071%=      5-min Rain = 0
KST2 140119Z 17006KT 07/02 A3002 RMK A01 T00720022  RH  071%=      5-min Rain = 0
KST2 140120Z 17007KT 07/02 A3002 RMK A01 T00710022  RH  071%=      5-min Rain = 0
KST2 140121Z 17007KT 07/02 A3002 RMK A01 T00710021  RH  071%=      5-min Rain = 0
KST2 140122Z 17008KT 07/02 A3002 RMK A01 T00710022  RH  071%=      5-min Rain = 0
KST2 140123Z 18007KT 07/02 A3002 RMK A01 T00710022  RH  071%=      5-min Rain = 0
KST2 140124Z 18009KT 07/02 A3002 RMK A01 T00710022  RH  071%=      5-min Rain = 0
KST2 140125Z 17009KT 07/02 A3002 RMK A01 T00710022  RH  071%=      5-min Rain = 0
KST2 140126Z 17008KT 07/02 A3002 RMK A01 T00720022  RH  071%=      5-min Rain = 0
KST2 140127Z 17008KT 07/02 A3002 RMK A01 T00720023  RH  071%=      5-min Rain = 0
KST2 140128Z 17008KT 07/02 A3002 RMK A01 T00710023  RH  071%=      5-min Rain = 0
KST2 140129Z 17008KT 07/02 A3002 RMK A01 T00710023  RH  071%=      5-min Rain = 0
KST2 140130Z 17007KT 07/02 A3002 RMK A01 T00700022  RH  071%=      5-min Rain = 0
KST2 140131Z 17007KT 07/02 A3002 RMK A01 T00700023  RH  072%=      5-min Rain = 0
KST2 140132Z 17007KT 07/02 A3002 RMK A01 T00690022  RH  072%=      5-min Rain = 0
KST2 140133Z 17007KT 07/02 A3002 RMK A01 T00680022  RH  073%=      5-min Rain = 0
KST2 140134Z 17007KT 07/02 A3002 RMK A01 T00680022  RH  073%=      5-min Rain = 0
KST2 140135Z 17006KT 07/02 A3002 RMK A01 T00670023  RH  073%=      5-min Rain = 0
KST2 140136Z 18006KT 07/02 A3002 RMK A01 T00660022  RH  074%=      5-min Rain = 0
KST2 140137Z 18007KT 07/02 A3002 RMK A01 T00660022  RH  074%=      5-min Rain = 0
KST2 140138Z 18006KT 07/02 A3002 RMK A01 T00650022  RH  074%=      5-min Rain = 0
KST2 140139Z 18006KT 07/02 A3002 RMK A01 T00650023  RH  074%=      5-min Rain = 0
KST2 140140Z 18006KT 07/02 A3003 RMK A01 T00650022  RH  074%=      5-min Rain = 0
KST2 140141Z 18006KT 07/02 A3003 RMK A01 T00650022  RH  074%=      5-min Rain = 0
KST2 140142Z 18006KT 07/02 A3002 RMK A01 T00650022  RH  074%=      5-min Rain = 0
KST2 140143Z 18007KT 07/02 A3002 RMK A01 T00650022  RH  074%=      5-min Rain = 0
KST2 140144Z 18007KT 06/02 A3002 RMK A01 T00640022  RH  074%=      5-min Rain = 0
KST2 140145Z 18008KT 06/02 A3002 RMK A01 T00640022  RH  074%=      5-min Rain = 0
KST2 140146Z 18008KT 07/02 A3002 RMK A01 T00650022  RH  074%=      5-min Rain = 0
KST2 140147Z 18008KT 07/02 A3002 RMK A01 T00650022  RH  074%=      5-min Rain = 0
KST2 140148Z 18008KT 07/02 A3002 RMK A01 T00660022  RH  074%=      5-min Rain = 0
KST2 140149Z 18007KT 07/02 A3002 RMK A01 T00660022  RH  073%=      5-min Rain = 0
KST2 140150Z 18009KT 07/02 A3002 RMK A01 T00670022  RH  073%=      5-min Rain = 0
KST2 140151Z 18009KT 07/02 A3002 RMK A01 T00670022  RH  073%=      5-min Rain = 0
KST2 140152Z 18009KT 07/02 A3002 RMK A01 T00670022  RH  073%=      5-min Rain = 0
KST2 140153Z 18009KT 07/02 A3002 RMK A01 T00680022  RH  073%=      5-min Rain = 0
KST2 140154Z 18009KT 07/02 A3002 RMK A01 T00680023  RH  073%=      5-min Rain = 0
KST2 140155Z 18009KT 07/02 A3002 RMK A01 T00670022  RH  073%=      5-min Rain = 0
KST2 140156Z 18008KT 07/02 A3002 RMK A01 T00670022  RH  073%=      5-min Rain = 0
KST2 140157Z 18009KT 07/02 A3002 RMK A01 T00670022  RH  073%=      5-min Rain = 0
KST2 140158Z 18009KT 07/02 A3003 RMK A01 T00670021  RH  073%=      5-min Rain = 0
KST2 140159Z 19008KT 07/02 A3003 RMK A01 T00680022  RH  072%=      5-min Rain = 0
KST2 140200Z 19008KT 07/02 A3003 RMK A01 T00680021  RH  072%=      5-min Rain = 0
KST2 140201Z 19008KT 07/02 A3003 RMK A01 T00680021  RH  072%=      5-min Rain = 0
KST2 140202Z 19008KT 07/02 A3003 RMK A01 T00680021  RH  072%=      5-min Rain = 0
KST2 140203Z 19008KT 07/02 A3003 RMK A01 T00680022  RH  072%=      5-min Rain = 0
KST2 140204Z 19008KT 07/02 A3003 RMK A01 T00680022  RH  072%=      5-min Rain = 0
KST2 140205Z 19008KT 07/02 A3003 RMK A01 T00680021  RH  072%=      5-min Rain = 0
KST2 140206Z 19008KT 07/02 A3003 RMK A01 T00680022  RH  072%=      5-min Rain = 0
KST2 140207Z 19008KT 07/02 A3003 RMK A01 T00670021  RH  073%=      5-min Rain = 0
KST2 140208Z 19008KT 07/02 A3003 RMK A01 T00670021  RH  073%=      5-min Rain = 0
KST2 140209Z 19008KT 07/02 A3002 RMK A01 T00670021  RH  073%=      5-min Rain = 0
KST2 140210Z 19008KT 07/02 A3003 RMK A01 T00660021  RH  073%=      5-min Rain = 0
KST2 140211Z 19007KT 07/02 A3003 RMK A01 T00660021  RH  073%=      5-min Rain = 0
KST2 140212Z 19007KT 07/02 A3003 RMK A01 T00660021  RH  073%=      5-min Rain = 0
KST2 140213Z 19007KT 07/02 A3003 RMK A01 T00660021  RH  073%=      5-min Rain = 0
KST2 140214Z 19008KT 07/02 A3003 RMK A01 T00650021  RH  073%=      5-min Rain = 0
KST2 140215Z 19008KT 07/02 A3003 RMK A01 T00650021  RH  073%=      5-min Rain = 0
KST2 140216Z 19007KT 07/02 A3003 RMK A01 T00650021  RH  073%=      5-min Rain = 0
KST2 140217Z 19007KT 07/02 A3003 RMK A01 T00650021  RH  074%=      5-min Rain = 0
KST2 140218Z 19007KT 06/02 A3003 RMK A01 T00640021  RH  074%=      5-min Rain = 0
KST2 140219Z 19007KT 06/02 A3003 RMK A01 T00640021  RH  074%=      5-min Rain = 0
KST2 140220Z 19006KT 06/02 A3003 RMK A01 T00640021  RH  074%=      5-min Rain = 0
KST2 140221Z 19007KT 06/02 A3003 RMK A01 T00630020  RH  074%=      5-min Rain = 0
KST2 140222Z 19007KT 06/02 A3003 RMK A01 T00630020  RH  074%=      5-min Rain = 0
KST2 140223Z 19006KT 06/02 A3003 RMK A01 T00630020  RH  074%=      5-min Rain = 0
KST2 140224Z 19006KT 06/02 A3003 RMK A01 T00630020  RH  074%=      5-min Rain = 0
KST2 140225Z 19006KT 06/02 A3003 RMK A01 T00620020  RH  074%=      5-min Rain = 0
KST2 140226Z 19006KT 06/02 A3003 RMK A01 T00620020  RH  074%=      5-min Rain = 0
KST2 140227Z 19006KT 06/02 A3003 RMK A01 T00620020  RH  075%=      5-min Rain = 0
KST2 140228Z 19006KT 06/02 A3003 RMK A01 T00620021  RH  075%=      5-min Rain = 0
KST2 140229Z 20006KT 06/02 A3003 RMK A01 T00610020  RH  075%=      5-min Rain = 0
KST2 140230Z 19006KT 06/02 A3003 RMK A01 T00600020  RH  075%=      5-min Rain = 0
KST2 140231Z 19007KT 06/02 A3003 RMK A01 T00600020  RH  076%=      5-min Rain = 0
KST2 140232Z 20007KT 06/02 A3003 RMK A01 T00590020  RH  076%=      5-min Rain = 0
KST2 140233Z 19007KT 06/02 A3003 RMK A01 T00590020  RH  076%=      5-min Rain = 0
KST2 140234Z 19006KT 06/02 A3004 RMK A01 T00590020  RH  076%=      5-min Rain = 0
KST2 140235Z 19006KT 06/02 A3004 RMK A01 T00590020  RH  076%=      5-min Rain = 0
KST2 140236Z 19006KT 06/02 A3004 RMK A01 T00590020  RH  076%=      5-min Rain = 0
KST2 140237Z 19006KT 06/02 A3004 RMK A01 T00590020  RH  076%=      5-min Rain = 0
KST2 140238Z 19006KT 06/02 A3004 RMK A01 T00590020  RH  076%=      5-min Rain = 0
KST2 140239Z 19005KT 06/02 A3004 RMK A01 T00590020  RH  076%=      5-min Rain = 0
KST2 140240Z 19006KT 06/02 A3004 RMK A01 T00590020  RH  076%=      5-min Rain = 0
KST2 140241Z 19005KT 06/02 A3004 RMK A01 T00590020  RH  076%=      5-min Rain = 0
KST2 140242Z 19005KT 06/02 A3004 RMK A01 T00580020  RH  076%=      5-min Rain = 0
KST2 140243Z 19005KT 06/02 A3004 RMK A01 T00580020  RH  076%=      5-min Rain = 0
KST2 140244Z 19005KT 06/02 A3004 RMK A01 T00580020  RH  076%=      5-min Rain = 0
KST2 140245Z 19005KT 06/02 A3004 RMK A01 T00570019  RH  077%=      5-min Rain = 0
KST2 140246Z 19006KT 06/02 A3004 RMK A01 T00570020  RH  077%=      5-min Rain = 0
KST2 140247Z 19005KT 06/02 A3004 RMK A01 T00570019  RH  077%=      5-min Rain = 0
KST2 140248Z 19005KT 06/02 A3004 RMK A01 T00570019  RH  077%=      5-min Rain = 0
KST2 140249Z 19005KT 06/02 A3004 RMK A01 T00570019  RH  077%=      5-min Rain = 0
KST2 140250Z 20005KT 06/02 A3004 RMK A01 T00560019  RH  077%=      5-min Rain = 0
KST2 140251Z 20006KT 06/02 A3004 RMK A01 T00560019  RH  077%=      5-min Rain = 0
KST2 140252Z 20006KT 06/02 A3004 RMK A01 T00560019  RH  077%=      5-min Rain = 0
KST2 140253Z 20006KT 06/02 A3004 RMK A01 T00550019  RH  077%=      5-min Rain = 0
KST2 140254Z 20006KT 06/02 A3004 RMK A01 T00550019  RH  077%=      5-min Rain = 0
KST2 140255Z 20006KT 06/02 A3004 RMK A01 T00550019  RH  078%=      5-min Rain = 0
KST2 140256Z 20006KT 05/02 A3004 RMK A01 T00540019  RH  078%=      5-min Rain = 0
KST2 140257Z 19005KT 05/02 A3004 RMK A01 T00540018  RH  078%=      5-min Rain = 0
KST2 140258Z 19005KT 05/02 A3004 RMK A01 T00530018  RH  078%=      5-min Rain = 0
KST2 140259Z 19005KT 05/02 A3004 RMK A01 T00530018  RH  078%=      5-min Rain = 0
KST2 140300Z 19004KT 05/02 A3004 RMK A01 T00530018  RH  078%=      5-min Rain = 0
KST2 140301Z 18004KT 05/02 A3004 RMK A01 T00530018  RH  078%=      5-min Rain = 0
KST2 140302Z 18004KT 05/02 A3004 RMK A01 T00530019  RH  079%=      5-min Rain = 0
KST2 140303Z 18004KT 05/02 A3004 RMK A01 T00520018  RH  079%=      5-min Rain = 0
KST2 140304Z 17004KT 05/02 A3004 RMK A01 T00510017  RH  079%=      5-min Rain = 0
KST2 140305Z 17005KT 05/02 A3004 RMK A01 T00500016  RH  079%=      5-min Rain = 0
KST2 140306Z 17006KT 05/02 A3004 RMK A01 T00490016  RH  079%=      5-min Rain = 0
KST2 140307Z 17006KT 05/02 A3004 RMK A01 T00480016  RH  080%=      5-min Rain = 0
KST2 140308Z 17006KT 05/02 A3004 RMK A01 T00480017  RH  080%=      5-min Rain = 0
KST2 140309Z 17006KT 05/02 A3004 RMK A01 T00480017  RH  081%=      5-min Rain = 0
KST2 140310Z 17006KT 05/02 A3004 RMK A01 T00480017  RH  081%=      5-min Rain = 0
KST2 140311Z 17005KT 05/02 A3004 RMK A01 T00480017  RH  081%=      5-min Rain = 0
KST2 140312Z 18005KT 05/02 A3004 RMK A01 T00470017  RH  081%=      5-min Rain = 0
KST2 140313Z 18005KT 05/02 A3004 RMK A01 T00480017  RH  081%=      5-min Rain = 0
KST2 140314Z 18005KT 05/02 A3004 RMK A01 T00470017  RH  081%=      5-min Rain = 0
KST2 140315Z 18005KT 05/02 A3004 RMK A01 T00470017  RH  081%=      5-min Rain = 0
KST2 140316Z 18004KT 05/02 A3004 RMK A01 T00470016  RH  081%=      5-min Rain = 0
KST2 140317Z 18004KT 05/02 A3004 RMK A01 T00470016  RH  081%=      5-min Rain = 0
KST2 140318Z 18004KT 05/02 A3004 RMK A01 T00460016  RH  081%=      5-min Rain = 0
KST2 140319Z 18005KT 05/02 A3004 RMK A01 T00460016  RH  081%=      5-min Rain = 0
KST2 140320Z 19004KT 05/02 A3004 RMK A01 T00460017  RH  081%=      5-min Rain = 0
KST2 140321Z 19004KT 05/02 A3005 RMK A01 T00460017  RH  081%=      5-min Rain = 0
KST2 140322Z 18004KT 05/02 A3005 RMK A01 T00460017  RH  081%=      5-min Rain = 0
KST2 140323Z 18003KT 05/02 A3005 RMK A01 T00460017  RH  081%=      5-min Rain = 0
KST2 140324Z 18003KT 05/02 A3005 RMK A01 T00460017  RH  081%=      5-min Rain = 0
KST2 140325Z 18003KT 05/02 A3005 RMK A01 T00460017  RH  081%=      5-min Rain = 0
KST2 140326Z 17004KT 05/02 A3005 RMK A01 T00460017  RH  082%=      5-min Rain = 0
KST2 140327Z 17004KT 05/02 A3005 RMK A01 T00460017  RH  082%=      5-min Rain = 0
KST2 140328Z 17004KT 05/02 A3005 RMK A01 T00460017  RH  082%=      5-min Rain = 0
KST2 140329Z 16004KT 05/02 A3005 RMK A01 T00460017  RH  082%=      5-min Rain = 0
KST2 140330Z 16004KT 05/02 A3005 RMK A01 T00460017  RH  082%=      5-min Rain = 0
KST2 140331Z 16004KT 05/02 A3005 RMK A01 T00450017  RH  082%=      5-min Rain = 0
KST2 140332Z 16004KT 05/02 A3005 RMK A01 T00450017  RH  082%=      5-min Rain = 0
KST2 140333Z 16004KT 05/02 A3005 RMK A01 T00450017  RH  082%=      5-min Rain = 0
KST2 140334Z 16004KT 05/02 A3005 RMK A01 T00450017  RH  082%=      5-min Rain = 0
KST2 140335Z 16004KT 05/02 A3005 RMK A01 T00450017  RH  082%=      5-min Rain = 0
KST2 140336Z 16003KT 04/02 A3005 RMK A01 T00440017  RH  082%=      5-min Rain = 0
KST2 140337Z 16003KT 04/02 A3005 RMK A01 T00440017  RH  082%=      5-min Rain = 0
KST2 140338Z 16003KT 05/02 A3005 RMK A01 T00450017  RH  082%=      5-min Rain = 0
KST2 140339Z 16003KT 04/02 A3005 RMK A01 T00440017  RH  082%=      5-min Rain = 0
KST2 140340Z 16004KT 04/02 A3005 RMK A01 T00440017  RH  082%=      5-min Rain = 0
KST2 140341Z 16003KT 04/02 A3006 RMK A01 T00440016  RH  082%=      5-min Rain = 0
KST2 140342Z 16003KT 04/02 A3006 RMK A01 T00430016  RH  082%=      5-min Rain = 0
KST2 140343Z 17004KT 04/02 A3006 RMK A01 T00430016  RH  082%=      5-min Rain = 0
KST2 140344Z 17004KT 04/02 A3006 RMK A01 T00430016  RH  083%=      5-min Rain = 0
KST2 140345Z 17004KT 04/02 A3006 RMK A01 T00430016  RH  083%=      5-min Rain = 0
KST2 140346Z 17004KT 04/02 A3006 RMK A01 T00420016  RH  083%=      5-min Rain = 0
KST2 140347Z 17004KT 04/02 A3006 RMK A01 T00420016  RH  083%=      5-min Rain = 0
KST2 140348Z 17005KT 04/02 A3006 RMK A01 T00430016  RH  083%=      5-min Rain = 0
KST2 140349Z 17005KT 04/02 A3006 RMK A01 T00420016  RH  083%=      5-min Rain = 0
KST2 140350Z 17005KT 04/02 A3006 RMK A01 T00420016  RH  083%=      5-min Rain = 0
KST2 140351Z 17004KT 04/02 A3006 RMK A01 T00420016  RH  083%=      5-min Rain = 0
KST2 140352Z 17004KT 04/02 A3006 RMK A01 T00420016  RH  083%=      5-min Rain = 0
KST2 140353Z 17004KT 04/02 A3006 RMK A01 T00410016  RH  083%=      5-min Rain = 0
KST2 140354Z 17004KT 04/02 A3006 RMK A01 T00420016  RH  083%=      5-min Rain = 0
KST2 140355Z 17004KT 04/02 A3006 RMK A01 T00410016  RH  083%=      5-min Rain = 0
KST2 140356Z 17004KT 04/02 A3006 RMK A01 T00410015  RH  083%=      5-min Rain = 0
KST2 140357Z 16005KT 04/02 A3006 RMK A01 T00410015  RH  083%=      5-min Rain = 0
KST2 140358Z 16004KT 04/02 A3006 RMK A01 T00410015  RH  083%=      5-min Rain = 0
KST2 140359Z 16005KT 04/02 A3007 RMK A01 T00410015  RH  083%=      5-min Rain = 0
KST2 140400Z 16005KT 04/02 A3007 RMK A01 T00400015  RH  083%=      5-min Rain = 0
KST2 140401Z 16005KT 04/02 A3007 RMK A01 T00410015  RH  084%=      5-min Rain = 0
KST2 140402Z 16005KT 04/02 A3007 RMK A01 T00400015  RH  084%=      5-min Rain = 0
KST2 140403Z 16005KT 04/02 A3007 RMK A01 T00400015  RH  084%=      5-min Rain = 0
KST2 140404Z 16005KT 04/02 A3007 RMK A01 T00400015  RH  084%=      5-min Rain = 0
KST2 140405Z 15005KT 04/02 A3007 RMK A01 T00400015  RH  084%=      5-min Rain = 0
KST2 140406Z 16005KT 04/02 A3007 RMK A01 T00390015  RH  084%=      5-min Rain = 0
KST2 140407Z 16005KT 04/01 A3007 RMK A01 T00390014  RH  084%=      5-min Rain = 0
KST2 140408Z 16004KT 04/01 A3007 RMK A01 T00380014  RH  084%=      5-min Rain = 0
KST2 140409Z 16004KT 04/01 A3007 RMK A01 T00380014  RH  084%=      5-min Rain = 0
KST2 140410Z 17004KT 04/01 A3007 RMK A01 T00380014  RH  084%=      5-min Rain = 0
KST2 140411Z 17004KT 04/01 A3007 RMK A01 T00380014  RH  085%=      5-min Rain = 0
KST2 140412Z 17004KT 04/01 A3007 RMK A01 T00380014  RH  085%=      5-min Rain = 0
KST2 140413Z 17004KT 04/01 A3007 RMK A01 T00380014  RH  084%=      5-min Rain = 0
KST2 140414Z 17004KT 04/01 A3007 RMK A01 T00380014  RH  084%=      5-min Rain = 0
KST2 140415Z 17004KT 04/01 A3007 RMK A01 T00370014  RH  084%=      5-min Rain = 0
KST2 140416Z 17004KT 04/01 A3007 RMK A01 T00370014  RH  085%=      5-min Rain = 0
KST2 140417Z 17004KT 04/01 A3007 RMK A01 T00370013  RH  085%=      5-min Rain = 0
KST2 140418Z 17004KT 04/01 A3007 RMK A01 T00370013  RH  085%=      5-min Rain = 0
KST2 140419Z 17003KT 04/01 A3007 RMK A01 T00370014  RH  085%=      5-min Rain = 0
KST2 140420Z 17004KT 04/01 A3007 RMK A01 T00370014  RH  085%=      5-min Rain = 0
KST2 140421Z 17004KT 04/01 A3007 RMK A01 T00360013  RH  085%=      5-min Rain = 0
KST2 140422Z 17004KT 04/01 A3007 RMK A01 T00360013  RH  085%=      5-min Rain = 0
KST2 140423Z 17004KT 04/01 A3007 RMK A01 T00360013  RH  085%=      5-min Rain = 0
KST2 140424Z 17004KT 04/01 A3007 RMK A01 T00360013  RH  085%=      5-min Rain = 0
KST2 140425Z 17004KT 04/01 A3007 RMK A01 T00350013  RH  085%=      5-min Rain = 0
KST2 140426Z 17004KT 04/01 A3007 RMK A01 T00360013  RH  085%=      5-min Rain = 0
KST2 140427Z 17004KT 04/01 A3007 RMK A01 T00360014  RH  085%=      5-min Rain = 0
KST2 140428Z 17005KT 04/01 A3007 RMK A01 T00360014  RH  086%=      5-min Rain = 0
KST2 140429Z 17005KT 04/01 A3007 RMK A01 T00350014  RH  086%=      5-min Rain = 0
KST2 140430Z 16005KT 04/01 A3007 RMK A01 T00350014  RH  086%=      5-min Rain = 0
KST2 140431Z 16005KT 04/02 A3007 RMK A01 T00360015  RH  086%=      5-min Rain = 0
KST2 140432Z 16005KT 04/02 A3007 RMK A01 T00360015  RH  086%=      5-min Rain = 0
KST2 140433Z 17005KT 04/02 A3007 RMK A01 T00360015  RH  086%=      5-min Rain = 0
KST2 140434Z 17005KT 04/02 A3007 RMK A01 T00360015  RH  086%=      5-min Rain = 0
KST2 140435Z 17004KT 04/02 A3007 RMK A01 T00360015  RH  086%=      5-min Rain = 0
KST2 140436Z 17004KT 04/02 A3007 RMK A01 T00360015  RH  086%=      5-min Rain = 0
KST2 140437Z 16004KT 04/02 A3007 RMK A01 T00360015  RH  086%=      5-min Rain = 0
KST2 140438Z 16004KT 04/02 A3007 RMK A01 T00350015  RH  086%=      5-min Rain = 0
KST2 140439Z 16004KT 04/01 A3007 RMK A01 T00350014  RH  086%=      5-min Rain = 0
KST2 140440Z 16004KT 04/01 A3007 RMK A01 T00350014  RH  086%=      5-min Rain = 0
KST2 140441Z 17004KT 03/01 A3007 RMK A01 T00340014  RH  086%=      5-min Rain = 0
KST2 140442Z 16004KT 03/01 A3007 RMK A01 T00340013  RH  086%=      5-min Rain = 0
KST2 140443Z 16004KT 03/01 A3007 RMK A01 T00340013  RH  086%=      5-min Rain = 0
KST2 140444Z 16004KT 03/01 A3007 RMK A01 T00340013  RH  086%=      5-min Rain = 0
KST2 140445Z 16004KT 03/01 A3007 RMK A01 T00340014  RH  087%=      5-min Rain = 0
KST2 140446Z 16004KT 03/01 A3007 RMK A01 T00340014  RH  087%=      5-min Rain = 0
KST2 140447Z 16004KT 03/01 A3007 RMK A01 T00340014  RH  087%=      5-min Rain = 0
KST2 140448Z 16004KT 03/01 A3007 RMK A01 T00340014  RH  087%=      5-min Rain = 0
KST2 140449Z 16004KT 03/01 A3007 RMK A01 T00340013  RH  087%=      5-min Rain = 0
KST2 140450Z 16003KT 03/01 A3007 RMK A01 T00330013  RH  087%=      5-min Rain = 0
KST2 140451Z 16004KT 03/01 A3007 RMK A01 T00330013  RH  087%=      5-min Rain = 0
KST2 140452Z 16004KT 03/01 A3007 RMK A01 T00320013  RH  087%=      5-min Rain = 0
KST2 140453Z 16004KT 03/01 A3007 RMK A01 T00320013  RH  087%=      5-min Rain = 0
KST2 140454Z 16004KT 03/01 A3007 RMK A01 T00320013  RH  087%=      5-min Rain = 0
KST2 140455Z 16004KT 03/01 A3007 RMK A01 T00310013  RH  087%=      5-min Rain = 0
KST2 140456Z 16004KT 03/01 A3007 RMK A01 T00310013  RH  088%=      5-min Rain = 0
KST2 140457Z 16004KT 03/01 A3007 RMK A01 T00310013  RH  088%=      5-min Rain = 0
KST2 140458Z 16004KT 03/01 A3007 RMK A01 T00310013  RH  088%=      5-min Rain = 0
KST2 140459Z 16004KT 03/01 A3007 RMK A01 T00310013  RH  088%=      5-min Rain = 0
KST2 140500Z 16004KT 03/01 A3008 RMK A01 T00310013  RH  088%=      5-min Rain = 0
KST2 140501Z 16004KT 03/01 A3008 RMK A01 T00310013  RH  088%=      5-min Rain = 0
KST2 140502Z 16004KT 03/01 A3008 RMK A01 T00310013  RH  088%=      5-min Rain = 0
KST2 140503Z 16004KT 03/01 A3008 RMK A01 T00310013  RH  088%=      5-min Rain = 0
KST2 140504Z 17004KT 03/01 A3008 RMK A01 T00310013  RH  088%=      5-min Rain = 0
KST2 140505Z 17004KT 03/01 A3008 RMK A01 T00310014  RH  089%=      5-min Rain = 0
KST2 140506Z 17004KT 03/01 A3008 RMK A01 T00310014  RH  089%=      5-min Rain = 0
KST2 140507Z 17005KT 03/01 A3008 RMK A01 T00310014  RH  089%=      5-min Rain = 0
KST2 140508Z 17004KT 03/01 A3008 RMK A01 T00310014  RH  089%=      5-min Rain = 0
KST2 140509Z 17004KT 03/01 A3008 RMK A01 T00310014  RH  089%=      5-min Rain = 0
KST2 140510Z 16004KT 03/01 A3008 RMK A01 T00310014  RH  089%=      5-min Rain = 0
KST2 140511Z 16005KT 03/01 A3008 RMK A01 T00310014  RH  089%=      5-min Rain = 0
KST2 140512Z 16005KT 03/01 A3008 RMK A01 T00310014  RH  089%=      5-min Rain = 0
KST2 140513Z 16005KT 03/01 A3008 RMK A01 T00310014  RH  089%=      5-min Rain = 0
KST2 140514Z 16005KT 03/01 A3008 RMK A01 T00300014  RH  089%=      5-min Rain = 0
KST2 140515Z 16005KT 03/01 A3008 RMK A01 T00300013  RH  089%=      5-min Rain = 0
KST2 140516Z 16005KT 03/01 A3008 RMK A01 T00300013  RH  089%=      5-min Rain = 0
KST2 140517Z 17005KT 03/01 A3008 RMK A01 T00290013  RH  089%=      5-min Rain = 0
KST2 140518Z 17005KT 03/01 A3008 RMK A01 T00300013  RH  089%=      5-min Rain = 0
KST2 140519Z 17005KT 03/01 A3008 RMK A01 T00290013  RH  089%=      5-min Rain = 0
KST2 140520Z 17005KT 03/01 A3008 RMK A01 T00290013  RH  089%=      5-min Rain = 0
KST2 140521Z 17005KT 03/01 A3008 RMK A01 T00290013  RH  089%=      5-min Rain = 0
KST2 140522Z 17005KT 03/01 A3008 RMK A01 T00290013  RH  089%=      5-min Rain = 0
KST2 140523Z 17005KT 03/01 A3008 RMK A01 T00290013  RH  089%=      5-min Rain = 0
KST2 140524Z 17004KT 03/01 A3008 RMK A01 T00280013  RH  090%=      5-min Rain = 0
KST2 140525Z 17004KT 03/01 A3008 RMK A01 T00280013  RH  090%=      5-min Rain = 0
KST2 140526Z 17004KT 03/01 A3008 RMK A01 T00280012  RH  090%=      5-min Rain = 0
KST2 140527Z 17004KT 03/01 A3008 RMK A01 T00280013  RH  090%=      5-min Rain = 0
KST2 140528Z 17004KT 03/01 A3008 RMK A01 T00280013  RH  090%=      5-min Rain = 0
KST2 140529Z 17004KT 03/01 A3008 RMK A01 T00280013  RH  090%=      5-min Rain = 0
KST2 140530Z 16004KT 03/01 A3008 RMK A01 T00280013  RH  090%=      5-min Rain = 0
KST2 140531Z 17004KT 03/01 A3008 RMK A01 T00280013  RH  090%=      5-min Rain = 0
KST2 140532Z 17004KT 03/01 A3008 RMK A01 T00280013  RH  090%=      5-min Rain = 0
KST2 140533Z 17004KT 03/01 A3008 RMK A01 T00280013  RH  090%=      5-min Rain = 0
KST2 140534Z 17004KT 03/01 A3008 RMK A01 T00270013  RH  090%=      5-min Rain = 0
KST2 140535Z 17004KT 03/01 A3008 RMK A01 T00270013  RH  090%=      5-min Rain = 0
KST2 140536Z 17003KT 03/01 A3008 RMK A01 T00270013  RH  090%=      5-min Rain = 0
KST2 140537Z 17004KT 03/01 A3008 RMK A01 T00270013  RH  090%=      5-min Rain = 0
KST2 140538Z 17003KT 03/01 A3008 RMK A01 T00270013  RH  090%=      5-min Rain = 0
KST2 140539Z 17003KT 03/01 A3008 RMK A01 T00270013  RH  090%=      5-min Rain = 0
KST2 140540Z 17003KT 03/01 A3008 RMK A01 T00270012  RH  090%=      5-min Rain = 0
KST2 140541Z 17003KT 03/01 A3008 RMK A01 T00270012  RH  090%=      5-min Rain = 0
KST2 140542Z 17003KT 03/01 A3008 RMK A01 T00260012  RH  090%=      5-min Rain = 0
KST2 140543Z 17003KT 03/01 A3009 RMK A01 T00270012  RH  090%=      5-min Rain = 0
KST2 140544Z 17003KT 03/01 A3009 RMK A01 T00260011  RH  090%=      5-min Rain = 0
KST2 140545Z 17003KT 03/01 A3009 RMK A01 T00260011  RH  090%=      5-min Rain = 0
KST2 140546Z 17003KT 03/01 A3009 RMK A01 T00260012  RH  090%=      5-min Rain = 0
KST2 140547Z 17003KT 03/01 A3009 RMK A01 T00260011  RH  090%=      5-min Rain = 0
KST2 140548Z 17002KT 03/01 A3009 RMK A01 T00250011  RH  090%=      5-min Rain = 0
KST2 140549Z 17002KT 03/01 A3009 RMK A01 T00250011  RH  090%=      5-min Rain = 0
KST2 140550Z 18002KT 03/01 A3009 RMK A01 T00250011  RH  090%=      5-min Rain = 0
KST2 140551Z 18002KT 03/01 A3009 RMK A01 T00250011  RH  091%=      5-min Rain = 0
KST2 140552Z 18002KT 03/01 A3009 RMK A01 T00250011  RH  091%=      5-min Rain = 0
KST2 140553Z 18002KT 03/01 A3009 RMK A01 T00250012  RH  091%=      5-min Rain = 0
KST2 140554Z 18002KT 03/01 A3009 RMK A01 T00250012  RH  091%=      5-min Rain = 0
KST2 140555Z 18002KT 03/01 A3009 RMK A01 T00250012  RH  091%=      5-min Rain = 0
KST2 140556Z 18002KT 03/01 A3009 RMK A01 T00250012  RH  091%=      5-min Rain = 0
KST2 140557Z 18002KT 03/01 A3009 RMK A01 T00250012  RH  091%=      5-min Rain = 0
KST2 140558Z 18002KT 02/01 A3009 RMK A01 T00240011  RH  091%=      5-min Rain = 0
KST2 140559Z 18002KT 03/01 A3009 RMK A01 T00250012  RH  091%=      5-min Rain = 0

Page generated in 0.0873 seconds.